Wetterstion Hohenwalde 74m ?ber NN
Wetterdaten: Donnerstag / Freitag, 04.09.2026
Datum Zeit Temp. A. 5cm TDach Feuchte A. Luftdruck Regen Wind Richtung Richtung Sonnenschein Solar Taupunkt Windb?en
03.09.2026 09:00 15,9 ?C 18,4 ?C 19,5 ?C 81 % 1017,5 hPa 0,0 l/m? 6,8 km/h (2 Bft) SW 227 ? 0 min 134 W/m? 12,6 ?C 12,9 km/h (3 Bft)
03.09.2026 09:03 15,8 ?C 18,2 ?C 18,9 ?C 81 % 1017,5 hPa 0,0 l/m? 5,3 km/h (1 Bft) SW 232 ? 0 min 139 W/m? 12,5 ?C 12,9 km/h (3 Bft)
03.09.2026 09:06 15,9 ?C 18,4 ?C 18,9 ?C 81 % 1017,5 hPa 0,0 l/m? 5,5 km/h (2 Bft) W-SW 239 ? 0 min 129 W/m? 12,6 ?C 14,5 km/h (3 Bft)
03.09.2026 09:09 15,9 ?C 18,1 ?C 18,3 ?C 81 % 1017,5 hPa 0,0 l/m? 6,0 km/h (2 Bft) SW 225 ? 0 min 120 W/m? 12,6 ?C 14,5 km/h (3 Bft)
03.09.2026 09:12 15,9 ?C 17,9 ?C 18,3 ?C 81 % 1017,4 hPa 0,0 l/m? 3,8 km/h (1 Bft) SW 230 ? 0 min 110 W/m? 12,6 ?C 8,0 km/h (2 Bft)
03.09.2026 09:15 15,9 ?C 18,0 ?C 18,0 ?C 81 % 1017,4 hPa 0,0 l/m? 6,1 km/h (2 Bft) SW 217 ? 0 min 94 W/m? 12,6 ?C 9,7 km/h (2 Bft)
03.09.2026 09:18 15,9 ?C 17,6 ?C 17,7 ?C 81 % 1017,4 hPa 0,0 l/m? 5,5 km/h (2 Bft) S-SW 210 ? 0 min 74 W/m? 12,6 ?C 8,0 km/h (2 Bft)
03.09.2026 09:21 15,9 ?C 17,4 ?C 17,6 ?C 81 % 1017,4 hPa 0,0 l/m? 4,3 km/h (1 Bft) SW 216 ? 0 min 61 W/m? 12,6 ?C 8,0 km/h (2 Bft)
03.09.2026 09:24 15,9 ?C 17,4 ?C 17,5 ?C 81 % 1017,4 hPa 0,0 l/m? 3,4 km/h (1 Bft) S-SW 212 ? 0 min 64 W/m? 12,6 ?C 6,4 km/h (2 Bft)
03.09.2026 09:27 15,9 ?C 17,4 ?C 17,4 ?C 81 % 1017,3 hPa 0,0 l/m? 4,3 km/h (1 Bft) S-SW 212 ? 0 min 72 W/m? 12,6 ?C 8,0 km/h (2 Bft)
03.09.2026 09:30 15,9 ?C 17,3 ?C 17,3 ?C 81 % 1017,3 hPa 0,0 l/m? 5,7 km/h (2 Bft) SW 218 ? 0 min 85 W/m? 12,6 ?C 8,0 km/h (2 Bft)
03.09.2026 09:33 15,9 ?C 17,4 ?C 17,5 ?C 81 % 1017,3 hPa 0,0 l/m? 4,2 km/h (1 Bft) SW 225 ? 0 min 104 W/m? 12,6 ?C 6,4 km/h (2 Bft)
03.09.2026 09:36 16,0 ?C 17,5 ?C 17,6 ?C 81 % 1017,2 hPa 0,0 l/m? 4,6 km/h (1 Bft) SW 217 ? 0 min 111 W/m? 12,7 ?C 8,0 km/h (2 Bft)
03.09.2026 09:39 16,0 ?C 17,6 ?C 17,7 ?C 81 % 1017,3 hPa 0,0 l/m? 4,8 km/h (1 Bft) S-SW 210 ? 0 min 122 W/m? 12,7 ?C 11,3 km/h (2 Bft)
03.09.2026 09:42 16,1 ?C 17,7 ?C 17,9 ?C 81 % 1017,3 hPa 0,0 l/m? 2,6 km/h (1 Bft) SW 215 ? 0 min 127 W/m? 12,8 ?C 8,0 km/h (2 Bft)
03.09.2026 09:45 16,2 ?C 17,9 ?C 18,1 ?C 81 % 1017,3 hPa 0,0 l/m? 4,5 km/h (1 Bft) S-SW 211 ? 0 min 150 W/m? 12,9 ?C 8,0 km/h (2 Bft)
03.09.2026 09:48 16,3 ?C 18,1 ?C 18,3 ?C 81 % 1017,3 hPa 0,0 l/m? 5,8 km/h (2 Bft) SW 221 ? 0 min 159 W/m? 13,0 ?C 9,7 km/h (2 Bft)
03.09.2026 09:51 16,4 ?C 18,2 ?C 18,3 ?C 80 % 1017,3 hPa 0,0 l/m? 7,9 km/h (2 Bft) SW 216 ? 0 min 164 W/m? 12,9 ?C 14,5 km/h (3 Bft)
03.09.2026 09:54 16,5 ?C 18,3 ?C 18,5 ?C 80 % 1017,3 hPa 0,0 l/m? 6,4 km/h (2 Bft) SW 236 ? 0 min 148 W/m? 13,0 ?C 12,9 km/h (3 Bft)
03.09.2026 09:57 16,5 ?C 18,3 ?C 18,3 ?C 80 % 1017,4 hPa 0,0 l/m? 6,5 km/h (2 Bft) SW 227 ? 0 min 148 W/m? 13,0 ?C 12,9 km/h (3 Bft)
03.09.2026 10:00 16,6 ?C 18,3 ?C 18,4 ?C 80 % 1017,4 hPa 0,0 l/m? 5,2 km/h (1 Bft) S-SW 209 ? 0 min 168 W/m? 13,1 ?C 9,7 km/h (2 Bft)
03.09.2026 10:03 16,6 ?C 18,4 ?C 18,5 ?C 80 % 1017,4 hPa 0,0 l/m? 6,8 km/h (2 Bft) S-SW 213 ? 0 min 179 W/m? 13,1 ?C 12,9 km/h (3 Bft)
03.09.2026 10:06 16,6 ?C 18,5 ?C 18,6 ?C 80 % 1017,3 hPa 0,0 l/m? 7,1 km/h (2 Bft) S-SW 211 ? 0 min 199 W/m? 13,1 ?C 14,5 km/h (3 Bft)
03.09.2026 10:09 16,7 ?C 18,9 ?C 18,9 ?C 79 % 1017,3 hPa 0,0 l/m? 8,2 km/h (2 Bft) SW 225 ? 0 min 239 W/m? 13,0 ?C 14,5 km/h (3 Bft)
03.09.2026 10:12 16,8 ?C 19,3 ?C 19,6 ?C 79 % 1017,3 hPa 0,0 l/m? 7,5 km/h (2 Bft) SW 220 ? 0 min 274 W/m? 13,1 ?C 12,9 km/h (3 Bft)
03.09.2026 10:15 17,0 ?C 19,6 ?C 20,2 ?C 79 % 1017,3 hPa 0,0 l/m? 7,8 km/h (2 Bft) SW 221 ? 0 min 284 W/m? 13,3 ?C 12,9 km/h (3 Bft)
03.09.2026 10:18 17,2 ?C 20,4 ?C 21,9 ?C 79 % 1017,3 hPa 0,0 l/m? 5,1 km/h (1 Bft) SW 230 ? 3 min 383 W/m? 13,5 ?C 8,0 km/h (2 Bft)
03.09.2026 10:21 17,6 ?C 20,6 ?C 22,8 ?C 78 % 1017,2 hPa 0,0 l/m? 6,0 km/h (2 Bft) S-SW 213 ? 3 min 346 W/m? 13,7 ?C 9,7 km/h (2 Bft)
03.09.2026 10:24 17,7 ?C 20,6 ?C 22,5 ?C 78 % 1017,3 hPa 0,0 l/m? 4,9 km/h (1 Bft) S-SW 208 ? 0 min 307 W/m? 13,8 ?C 11,3 km/h (2 Bft)
03.09.2026 10:27 18,0 ?C 20,8 ?C 22,2 ?C 78 % 1017,2 hPa 0,0 l/m? 5,4 km/h (2 Bft) SW 217 ? 0 min 275 W/m? 14,1 ?C 9,7 km/h (2 Bft)
03.09.2026 10:30 18,0 ?C 20,6 ?C 21,6 ?C 77 % 1017,2 hPa 0,0 l/m? 7,0 km/h (2 Bft) S-SW 206 ? 0 min 261 W/m? 13,9 ?C 17,7 km/h (3 Bft)
03.09.2026 10:33 17,9 ?C 20,4 ?C 20,9 ?C 77 % 1017,2 hPa 0,0 l/m? 7,1 km/h (2 Bft) S-SW 212 ? 0 min 255 W/m? 13,8 ?C 14,5 km/h (3 Bft)
03.09.2026 10:36 17,9 ?C 20,2 ?C 20,8 ?C 77 % 1017,2 hPa 0,0 l/m? 8,2 km/h (2 Bft) SW 218 ? 0 min 241 W/m? 13,8 ?C 14,5 km/h (3 Bft)
03.09.2026 10:39 17,9 ?C 20,3 ?C 20,6 ?C 77 % 1017,3 hPa 0,0 l/m? 8,4 km/h (2 Bft) S-SW 206 ? 0 min 207 W/m? 13,8 ?C 14,5 km/h (3 Bft)
03.09.2026 10:42 17,9 ?C 19,9 ?C 20,3 ?C 77 % 1017,2 hPa 0,0 l/m? 8,5 km/h (2 Bft) S-SW 200 ? 0 min 168 W/m? 13,8 ?C 16,1 km/h (3 Bft)
03.09.2026 10:45 17,9 ?C 19,6 ?C 20,0 ?C 76 % 1017,2 hPa 0,0 l/m? 5,9 km/h (2 Bft) SW 215 ? 0 min 137 W/m? 13,6 ?C 14,5 km/h (3 Bft)
03.09.2026 10:48 17,8 ?C 19,3 ?C 19,8 ?C 77 % 1017,2 hPa 0,0 l/m? 8,1 km/h (2 Bft) SW 226 ? 0 min 122 W/m? 13,7 ?C 12,9 km/h (3 Bft)
03.09.2026 10:51 17,8 ?C 19,2 ?C 19,6 ?C 77 % 1017,2 hPa 0,0 l/m? 6,5 km/h (2 Bft) S-SW 211 ? 0 min 129 W/m? 13,7 ?C 17,7 km/h (3 Bft)
03.09.2026 10:54 17,8 ?C 19,1 ?C 19,4 ?C 77 % 1017,2 hPa 0,0 l/m? 9,7 km/h (2 Bft) SW 220 ? 0 min 149 W/m? 13,7 ?C 16,1 km/h (3 Bft)
03.09.2026 10:57 17,8 ?C 19,2 ?C 19,3 ?C 76 % 1017,0 hPa 0,0 l/m? 11,4 km/h (2 Bft) S-SW 210 ? 0 min 161 W/m? 13,5 ?C 20,9 km/h (4 Bft)
03.09.2026 11:00 17,8 ?C 19,3 ?C 19,6 ?C 76 % 1016,9 hPa 0,0 l/m? 5,6 km/h (2 Bft) S-SW 205 ? 0 min 168 W/m? 13,5 ?C 12,9 km/h (3 Bft)
03.09.2026 11:03 17,9 ?C 19,5 ?C 19,8 ?C 76 % 1016,9 hPa 0,0 l/m? 7,5 km/h (2 Bft) S-SW 213 ? 0 min 182 W/m? 13,6 ?C 12,9 km/h (3 Bft)
03.09.2026 11:06 18,0 ?C 19,7 ?C 20,0 ?C 76 % 1017,0 hPa 0,0 l/m? 4,9 km/h (1 Bft) SW 216 ? 0 min 192 W/m? 13,7 ?C 11,3 km/h (2 Bft)
03.09.2026 11:09 18,1 ?C 19,7 ?C 20,2 ?C 77 % 1016,9 hPa 0,0 l/m? 7,2 km/h (2 Bft) S-SW 203 ? 0 min 185 W/m? 14,0 ?C 14,5 km/h (3 Bft)
03.09.2026 11:12 18,1 ?C 19,7 ?C 20,1 ?C 76 % 1016,9 hPa 0,0 l/m? 7,6 km/h (2 Bft) S-SW 213 ? 0 min 184 W/m? 13,8 ?C 12,9 km/h (3 Bft)
03.09.2026 11:15 18,1 ?C 19,7 ?C 20,1 ?C 76 % 1016,8 hPa 0,0 l/m? 9,9 km/h (2 Bft) S-SW 211 ? 0 min 188 W/m? 13,8 ?C 16,1 km/h (3 Bft)
03.09.2026 11:18 18,2 ?C 19,6 ?C 20,0 ?C 76 % 1016,9 hPa 0,0 l/m? 7,3 km/h (2 Bft) S-SW 210 ? 0 min 181 W/m? 13,9 ?C 14,5 km/h (3 Bft)
03.09.2026 11:21 18,3 ?C 19,9 ?C 20,1 ?C 77 % 1016,8 hPa 0,0 l/m? 8,0 km/h (2 Bft) S-SW 211 ? 0 min 207 W/m? 14,2 ?C 12,9 km/h (3 Bft)
03.09.2026 11:24 18,3 ?C 20,4 ?C 20,7 ?C 77 % 1016,9 hPa 0,0 l/m? 4,3 km/h (1 Bft) S-SW 202 ? 0 min 221 W/m? 14,2 ?C 8,0 km/h (2 Bft)
03.09.2026 11:27 18,5 ?C 20,7 ?C 20,7 ?C 76 % 1016,9 hPa 0,0 l/m? 7,2 km/h (2 Bft) SW 214 ? 0 min 219 W/m? 14,2 ?C 14,5 km/h (3 Bft)
03.09.2026 11:30 18,6 ?C 20,8 ?C 21,0 ?C 76 % 1016,7 hPa 0,0 l/m? 5,9 km/h (2 Bft) S-SW 206 ? 0 min 258 W/m? 14,3 ?C 9,7 km/h (2 Bft)
03.09.2026 11:33 18,8 ?C 21,1 ?C 22,1 ?C 76 % 1016,7 hPa 0,0 l/m? 5,9 km/h (2 Bft) S-SW 197 ? 3 min 386 W/m? 14,5 ?C 14,5 km/h (3 Bft)
03.09.2026 11:36 19,1 ?C 21,8 ?C 23,3 ?C 76 % 1016,7 hPa 0,0 l/m? 8,9 km/h (2 Bft) S-SW 209 ? 3 min 404 W/m? 14,8 ?C 19,3 km/h (3 Bft)
03.09.2026 11:39 19,5 ?C 22,4 ?C 24,5 ?C 75 % 1016,6 hPa 0,0 l/m? 7,4 km/h (2 Bft) SW 221 ? 3 min 498 W/m? 14,9 ?C 12,9 km/h (3 Bft)
03.09.2026 11:42 19,8 ?C 23,1 ?C 24,4 ?C 74 % 1016,6 hPa 0,0 l/m? 9,0 km/h (2 Bft) S 173 ? 3 min 499 W/m? 15,0 ?C 14,5 km/h (3 Bft)
03.09.2026 11:45 20,0 ?C 23,7 ?C 24,5 ?C 73 % 1016,7 hPa 0,0 l/m? 11,9 km/h (2 Bft) SW 221 ? 3 min 482 W/m? 15,0 ?C 24,1 km/h (4 Bft)
03.09.2026 11:48 20,2 ?C 23,6 ?C 24,1 ?C 72 % 1016,6 hPa 0,0 l/m? 11,7 km/h (2 Bft) S-SW 212 ? 3 min 441 W/m? 15,0 ?C 19,3 km/h (3 Bft)
03.09.2026 11:51 20,2 ?C 23,3 ?C 23,9 ?C 71 % 1016,5 hPa 0,0 l/m? 11,5 km/h (2 Bft) S-SW 206 ? 0 min 370 W/m? 14,8 ?C 22,5 km/h (4 Bft)
03.09.2026 11:54 20,2 ?C 22,7 ?C 23,2 ?C 70 % 1016,6 hPa 0,0 l/m? 12,7 km/h (3 Bft) S-SW 208 ? 0 min 348 W/m? 14,5 ?C 22,5 km/h (4 Bft)
03.09.2026 11:57 20,1 ?C 22,4 ?C 22,9 ?C 70 % 1016,4 hPa 0,0 l/m? 12,6 km/h (3 Bft) S-SW 195 ? 0 min 346 W/m? 14,5 ?C 20,9 km/h (4 Bft)
03.09.2026 12:00 20,2 ?C 23,0 ?C 23,9 ?C 71 % 1016,4 hPa 0,0 l/m? 8,0 km/h (2 Bft) SW 226 ? 0 min 373 W/m? 14,8 ?C 17,7 km/h (3 Bft)
03.09.2026 12:03 20,4 ?C 23,0 ?C 23,2 ?C 70 % 1016,5 hPa 0,0 l/m? 13,3 km/h (3 Bft) S-SW 199 ? 0 min 278 W/m? 14,7 ?C 22,5 km/h (4 Bft)
03.09.2026 12:06 20,2 ?C 22,0 ?C 22,5 ?C 70 % 1016,6 hPa 0,0 l/m? 10,8 km/h (2 Bft) S-SW 206 ? 0 min 265 W/m? 14,5 ?C 19,3 km/h (3 Bft)
03.09.2026 12:09 20,1 ?C 22,0 ?C 22,6 ?C 70 % 1016,5 hPa 0,0 l/m? 11,1 km/h (2 Bft) SW 223 ? 0 min 287 W/m? 14,5 ?C 19,3 km/h (3 Bft)
03.09.2026 12:12 20,1 ?C 22,5 ?C 23,0 ?C 70 % 1016,4 hPa 0,0 l/m? 8,2 km/h (2 Bft) S-SW 210 ? 0 min 295 W/m? 14,5 ?C 14,5 km/h (3 Bft)
03.09.2026 12:15 20,2 ?C 22,7 ?C 23,3 ?C 71 % 1016,3 hPa 0,0 l/m? 9,1 km/h (2 Bft) SW 218 ? 0 min 285 W/m? 14,8 ?C 25,7 km/h (4 Bft)
03.09.2026 12:18 20,3 ?C 22,5 ?C 22,6 ?C 70 % 1016,3 hPa 0,0 l/m? 13,0 km/h (3 Bft) SW 219 ? 0 min 281 W/m? 14,6 ?C 20,9 km/h (4 Bft)
03.09.2026 12:21 20,3 ?C 22,3 ?C 22,7 ?C 70 % 1016,2 hPa 0,0 l/m? 10,3 km/h (2 Bft) SW 217 ? 0 min 240 W/m? 14,6 ?C 19,3 km/h (3 Bft)
03.09.2026 12:24 20,2 ?C 21,8 ?C 22,2 ?C 69 % 1016,2 hPa 0,0 l/m? 12,0 km/h (2 Bft) S-SW 208 ? 0 min 203 W/m? 14,3 ?C 20,9 km/h (4 Bft)
03.09.2026 12:27 20,1 ?C 21,7 ?C 22,0 ?C 69 % 1016,2 hPa 0,0 l/m? 11,9 km/h (2 Bft) S-SW 207 ? 0 min 251 W/m? 14,2 ?C 24,1 km/h (4 Bft)
03.09.2026 12:30 20,1 ?C 22,2 ?C 22,6 ?C 69 % 1016,1 hPa 0,0 l/m? 14,8 km/h (3 Bft) S-SW 210 ? 0 min 377 W/m? 14,2 ?C 25,7 km/h (4 Bft)
03.09.2026 12:33 20,3 ?C 22,8 ?C 23,1 ?C 68 % 1016,1 hPa 0,0 l/m? 13,5 km/h (3 Bft) SW 217 ? 3 min 415 W/m? 14,2 ?C 17,7 km/h (3 Bft)
03.09.2026 12:36 20,6 ?C 23,0 ?C 23,4 ?C 68 % 1016,1 hPa 0,0 l/m? 12,7 km/h (3 Bft) SW 216 ? 0 min 354 W/m? 14,5 ?C 22,5 km/h (4 Bft)
03.09.2026 12:39 20,7 ?C 23,1 ?C 23,2 ?C 67 % 1016,0 hPa 0,0 l/m? 12,6 km/h (3 Bft) S-SW 197 ? 3 min 403 W/m? 14,3 ?C 22,5 km/h (4 Bft)
03.09.2026 12:42 20,7 ?C 23,5 ?C 23,7 ?C 68 % 1015,9 hPa 0,0 l/m? 12,2 km/h (2 Bft) SW 221 ? 3 min 411 W/m? 14,6 ?C 24,1 km/h (4 Bft)
03.09.2026 12:45 20,9 ?C 23,7 ?C 23,8 ?C 67 % 1015,8 hPa 0,0 l/m? 13,7 km/h (3 Bft) SW 232 ? 0 min 368 W/m? 14,5 ?C 25,7 km/h (4 Bft)
03.09.2026 12:48 20,8 ?C 23,3 ?C 23,2 ?C 66 % 1015,8 hPa 0,0 l/m? 15,3 km/h (3 Bft) S-SW 213 ? 0 min 332 W/m? 14,2 ?C 22,5 km/h (4 Bft)
03.09.2026 12:51 20,7 ?C 23,1 ?C 23,0 ?C 66 % 1015,7 hPa 0,0 l/m? 14,2 km/h (3 Bft) S-SW 196 ? 0 min 323 W/m? 14,1 ?C 22,5 km/h (4 Bft)
03.09.2026 12:54 20,7 ?C 22,8 ?C 22,8 ?C 66 % 1015,6 hPa 0,0 l/m? 15,7 km/h (3 Bft) SW 215 ? 0 min 350 W/m? 14,1 ?C 32,2 km/h (5 Bft)
03.09.2026 12:57 20,7 ?C 23,1 ?C 23,1 ?C 66 % 1015,6 hPa 0,0 l/m? 16,8 km/h (3 Bft) SW 230 ? 0 min 346 W/m? 14,1 ?C 25,7 km/h (4 Bft)
03.09.2026 13:00 20,7 ?C 23,1 ?C 23,1 ?C 66 % 1015,6 hPa 0,0 l/m? 13,4 km/h (3 Bft) SW 222 ? 0 min 341 W/m? 14,1 ?C 22,5 km/h (4 Bft)
03.09.2026 13:03 20,7 ?C 23,1 ?C 23,3 ?C 66 % 1015,5 hPa 0,0 l/m? 11,9 km/h (2 Bft) SW 220 ? 0 min 340 W/m? 14,1 ?C 22,5 km/h (4 Bft)
03.09.2026 13:06 20,8 ?C 23,3 ?C 23,7 ?C 66 % 1015,5 hPa 0,0 l/m? 10,5 km/h (2 Bft) SW 233 ? 0 min 364 W/m? 14,2 ?C 22,5 km/h (4 Bft)
03.09.2026 13:09 20,9 ?C 23,4 ?C 23,8 ?C 66 % 1015,5 hPa 0,0 l/m? 11,2 km/h (2 Bft) SW 216 ? 0 min 367 W/m? 14,3 ?C 22,5 km/h (4 Bft)
03.09.2026 13:12 21,0 ?C 23,2 ?C 23,2 ?C 65 % 1015,4 hPa 0,0 l/m? 14,8 km/h (3 Bft) SW 216 ? 0 min 317 W/m? 14,2 ?C 22,5 km/h (4 Bft)
03.09.2026 13:15 20,9 ?C 23,0 ?C 23,0 ?C 65 % 1015,4 hPa 0,0 l/m? 17,1 km/h (3 Bft) SW 217 ? 0 min 287 W/m? 14,1 ?C 30,6 km/h (5 Bft)
03.09.2026 13:18 20,8 ?C 22,6 ?C 22,9 ?C 65 % 1015,3 hPa 0,0 l/m? 14,1 km/h (3 Bft) S-SW 212 ? 0 min 274 W/m? 14,0 ?C 24,1 km/h (4 Bft)
03.09.2026 13:21 20,7 ?C 22,5 ?C 22,8 ?C 65 % 1015,4 hPa 0,0 l/m? 13,7 km/h (3 Bft) SW 223 ? 0 min 241 W/m? 13,9 ?C 22,5 km/h (4 Bft)
03.09.2026 13:24 20,6 ?C 22,4 ?C 22,7 ?C 66 % 1015,4 hPa 0,0 l/m? 11,8 km/h (2 Bft) S-SW 208 ? 0 min 203 W/m? 14,0 ?C 19,3 km/h (3 Bft)
03.09.2026 13:27 20,6 ?C 22,1 ?C 22,2 ?C 66 % 1015,4 hPa 0,0 l/m? 11,2 km/h (2 Bft) S 185 ? 0 min 175 W/m? 14,0 ?C 20,9 km/h (4 Bft)
03.09.2026 13:30 20,5 ?C 21,7 ?C 21,8 ?C 66 % 1015,4 hPa 0,0 l/m? 12,1 km/h (2 Bft) S 188 ? 0 min 159 W/m? 13,9 ?C 19,3 km/h (3 Bft)
03.09.2026 13:33 20,4 ?C 21,5 ?C 21,8 ?C 66 % 1015,4 hPa 0,0 l/m? 11,0 km/h (2 Bft) S-SW 205 ? 0 min 145 W/m? 13,8 ?C 22,5 km/h (4 Bft)
03.09.2026 13:36 20,4 ?C 21,5 ?C 21,9 ?C 67 % 1015,3 hPa 0,0 l/m? 11,7 km/h (2 Bft) S-SW 212 ? 0 min 151 W/m? 14,1 ?C 22,5 km/h (4 Bft)
03.09.2026 13:39 20,4 ?C 21,4 ?C 21,8 ?C 66 % 1015,3 hPa 0,0 l/m? 8,7 km/h (2 Bft) SW 216 ? 0 min 134 W/m? 13,8 ?C 20,9 km/h (4 Bft)
03.09.2026 13:42 20,3 ?C 21,4 ?C 22,2 ?C 67 % 1015,3 hPa 0,0 l/m? 5,4 km/h (2 Bft) S-SW 206 ? 0 min 158 W/m? 14,0 ?C 14,5 km/h (3 Bft)
03.09.2026 13:45 20,4 ?C 21,7 ?C 22,4 ?C 68 % 1015,3 hPa 0,0 l/m? 7,0 km/h (2 Bft) S-SW 208 ? 0 min 189 W/m? 14,3 ?C 14,5 km/h (3 Bft)
03.09.2026 13:48 20,5 ?C 21,8 ?C 22,4 ?C 67 % 1015,2 hPa 0,0 l/m? 9,8 km/h (2 Bft) S-SW 195 ? 0 min 216 W/m? 14,2 ?C 17,7 km/h (3 Bft)
03.09.2026 13:51 20,6 ?C 21,9 ?C 22,5 ?C 66 % 1015,2 hPa 0,0 l/m? 15,8 km/h (3 Bft) SW 218 ? 0 min 207 W/m? 14,0 ?C 22,5 km/h (4 Bft)
03.09.2026 13:54 20,7 ?C 21,8 ?C 22,5 ?C 66 % 1015,1 hPa 0,0 l/m? 12,0 km/h (2 Bft) SW 215 ? 0 min 200 W/m? 14,1 ?C 22,5 km/h (4 Bft)
03.09.2026 13:57 20,7 ?C 21,8 ?C 22,5 ?C 65 % 1015,1 hPa 0,0 l/m? 9,5 km/h (2 Bft) S-SW 212 ? 0 min 228 W/m? 13,9 ?C 16,1 km/h (3 Bft)
03.09.2026 14:00 20,8 ?C 22,0 ?C 22,8 ?C 66 % 1015,0 hPa 0,0 l/m? 8,3 km/h (2 Bft) SW 214 ? 0 min 201 W/m? 14,2 ?C 12,9 km/h (3 Bft)
03.09.2026 14:03 20,9 ?C 22,1 ?C 22,8 ?C 66 % 1015,0 hPa 0,0 l/m? 9,6 km/h (2 Bft) S-SW 213 ? 0 min 224 W/m? 14,3 ?C 17,7 km/h (3 Bft)
03.09.2026 14:06 20,9 ?C 22,2 ?C 22,7 ?C 65 % 1015,0 hPa 0,0 l/m? 13,8 km/h (3 Bft) S-SW 208 ? 0 min 268 W/m? 14,1 ?C 20,9 km/h (4 Bft)
03.09.2026 14:09 21,0 ?C 22,7 ?C 23,1 ?C 64 % 1015,0 hPa 0,0 l/m? 16,2 km/h (3 Bft) SW 223 ? 0 min 352 W/m? 13,9 ?C 29,0 km/h (5 Bft)
03.09.2026 14:12 21,2 ?C 23,0 ?C 23,4 ?C 64 % 1014,9 hPa 0,0 l/m? 14,6 km/h (3 Bft) SW 219 ? 0 min 377 W/m? 14,1 ?C 25,7 km/h (4 Bft)
03.09.2026 14:15 21,4 ?C 23,6 ?C 24,0 ?C 63 % 1014,8 hPa 0,0 l/m? 12,5 km/h (2 Bft) SW 219 ? 0 min 371 W/m? 14,1 ?C 24,1 km/h (4 Bft)
03.09.2026 14:18 21,5 ?C 23,2 ?C 23,7 ?C 62 % 1014,8 hPa 0,0 l/m? 15,0 km/h (3 Bft) SW 216 ? 0 min 244 W/m? 13,9 ?C 25,7 km/h (4 Bft)
03.09.2026 14:21 21,5 ?C 22,9 ?C 23,1 ?C 61 % 1014,8 hPa 0,0 l/m? 17,2 km/h (3 Bft) S-SW 196 ? 0 min 295 W/m? 13,7 ?C 37,0 km/h (5 Bft)
03.09.2026 14:24 21,5 ?C 23,2 ?C 23,4 ?C 61 % 1014,7 hPa 0,0 l/m? 13,9 km/h (3 Bft) S-SW 198 ? 0 min 322 W/m? 13,7 ?C 20,9 km/h (4 Bft)
03.09.2026 14:27 21,6 ?C 23,9 ?C 24,1 ?C 61 % 1014,7 hPa 0,0 l/m? 14,4 km/h (3 Bft) S-SW 207 ? 3 min 489 W/m? 13,7 ?C 24,1 km/h (4 Bft)
03.09.2026 14:30 22,0 ?C 24,4 ?C 24,5 ?C 61 % 1014,6 hPa 0,0 l/m? 10,2 km/h (2 Bft) S 178 ? 3 min 393 W/m? 14,1 ?C 17,7 km/h (3 Bft)
03.09.2026 14:33 22,1 ?C 24,2 ?C 24,9 ?C 60 % 1014,5 hPa 0,0 l/m? 10,4 km/h (2 Bft) SW 214 ? 0 min 331 W/m? 14,0 ?C 19,3 km/h (3 Bft)
03.09.2026 14:36 22,1 ?C 23,7 ?C 24,8 ?C 60 % 1014,5 hPa 0,0 l/m? 12,8 km/h (3 Bft) S-SW 212 ? 0 min 326 W/m? 14,0 ?C 24,1 km/h (4 Bft)
03.09.2026 14:39 22,0 ?C 23,8 ?C 24,3 ?C 60 % 1014,5 hPa 0,0 l/m? 15,6 km/h (3 Bft) S-SW 210 ? 0 min 349 W/m? 13,9 ?C 25,7 km/h (4 Bft)
03.09.2026 14:42 21,9 ?C 24,1 ?C 24,0 ?C 60 % 1014,4 hPa 0,0 l/m? 16,5 km/h (3 Bft) SW 216 ? 3 min 489 W/m? 13,8 ?C 24,1 km/h (4 Bft)
03.09.2026 14:45 22,3 ?C 26,6 ?C 24,9 ?C 61 % 1014,3 hPa 0,0 l/m? 13,5 km/h (3 Bft) S-SW 202 ? 3 min 688 W/m? 14,4 ?C 20,9 km/h (4 Bft)
03.09.2026 14:48 23,0 ?C 27,9 ?C 25,0 ?C 59 % 1014,2 hPa 0,0 l/m? 16,5 km/h (3 Bft) S-SW 205 ? 3 min 717 W/m? 14,5 ?C 25,7 km/h (4 Bft)
03.09.2026 14:51 23,2 ?C 27,5 ?C 24,9 ?C 58 % 1014,2 hPa 0,0 l/m? 13,5 km/h (3 Bft) SW 222 ? 3 min 475 W/m? 14,5 ?C 25,7 km/h (4 Bft)
03.09.2026 14:54 23,0 ?C 27,4 ?C 25,1 ?C 59 % 1014,2 hPa 0,0 l/m? 11,9 km/h (2 Bft) SW 223 ? 3 min 478 W/m? 14,5 ?C 20,9 km/h (4 Bft)
03.09.2026 14:57 23,2 ?C 28,9 ?C 25,2 ?C 58 % 1014,2 hPa 0,0 l/m? 17,1 km/h (3 Bft) SW 236 ? 3 min 621 W/m? 14,5 ?C 30,6 km/h (5 Bft)
03.09.2026 15:00 23,3 ?C 29,0 ?C 24,7 ?C 58 % 1014,1 hPa 0,0 l/m? 19,1 km/h (3 Bft) SW 235 ? 3 min 621 W/m? 14,6 ?C 35,4 km/h (5 Bft)
03.09.2026 15:03 23,2 ?C 29,3 ?C 24,9 ?C 57 % 1014,1 hPa 0,0 l/m? 13,1 km/h (3 Bft) SW 217 ? 3 min 621 W/m? 14,2 ?C 20,9 km/h (4 Bft)
03.09.2026 15:06 23,3 ?C 29,1 ?C 25,1 ?C 58 % 1014,1 hPa 0,0 l/m? 13,3 km/h (3 Bft) S-SW 210 ? 3 min 520 W/m? 14,6 ?C 19,3 km/h (3 Bft)
03.09.2026 15:09 23,4 ?C 28,7 ?C 24,9 ?C 58 % 1014,0 hPa 0,0 l/m? 13,6 km/h (3 Bft) SW 217 ? 3 min 383 W/m? 14,7 ?C 24,1 km/h (4 Bft)
03.09.2026 15:12 23,3 ?C 27,9 ?C 24,4 ?C 57 % 1013,9 hPa 0,0 l/m? 16,2 km/h (3 Bft) S-SW 210 ? 3 min 454 W/m? 14,3 ?C 24,1 km/h (4 Bft)
03.09.2026 15:15 23,2 ?C 28,2 ?C 24,7 ?C 58 % 1013,9 hPa 0,0 l/m? 12,9 km/h (3 Bft) S-SW 210 ? 0 min 309 W/m? 14,5 ?C 20,9 km/h (4 Bft)
03.09.2026 15:18 23,2 ?C 28,0 ?C 24,7 ?C 58 % 1013,8 hPa 0,0 l/m? 12,0 km/h (2 Bft) SW 219 ? 3 min 430 W/m? 14,5 ?C 27,4 km/h (5 Bft)
03.09.2026 15:21 23,1 ?C 27,0 ?C 24,1 ?C 57 % 1013,8 hPa 0,0 l/m? 14,1 km/h (3 Bft) SW 214 ? 0 min 277 W/m? 14,1 ?C 24,1 km/h (4 Bft)
03.09.2026 15:24 23,0 ?C 27,9 ?C 24,3 ?C 58 % 1013,8 hPa 0,0 l/m? 14,8 km/h (3 Bft) SW 224 ? 3 min 543 W/m? 14,3 ?C 24,1 km/h (4 Bft)
03.09.2026 15:27 23,1 ?C 27,9 ?C 24,3 ?C 58 % 1013,9 hPa 0,0 l/m? 16,3 km/h (3 Bft) SW 227 ? 3 min 400 W/m? 14,4 ?C 24,1 km/h (4 Bft)
03.09.2026 15:30 23,1 ?C 27,7 ?C 24,7 ?C 58 % 1013,8 hPa 0,0 l/m? 11,7 km/h (2 Bft) S-SW 212 ? 3 min 345 W/m? 14,4 ?C 22,5 km/h (4 Bft)
03.09.2026 15:33 23,4 ?C 28,7 ?C 25,2 ?C 58 % 1013,8 hPa 0,0 l/m? 11,1 km/h (2 Bft) SW 227 ? 3 min 456 W/m? 14,7 ?C 17,7 km/h (3 Bft)
03.09.2026 15:36 23,6 ?C 28,5 ?C 25,1 ?C 57 % 1013,7 hPa 0,0 l/m? 14,1 km/h (3 Bft) S-SW 210 ? 3 min 584 W/m? 14,6 ?C 22,5 km/h (4 Bft)
03.09.2026 15:39 23,6 ?C 28,2 ?C 24,7 ?C 57 % 1013,6 hPa 0,0 l/m? 16,7 km/h (3 Bft) SW 225 ? 3 min 373 W/m? 14,6 ?C 25,7 km/h (4 Bft)
03.09.2026 15:42 23,6 ?C 28,1 ?C 24,8 ?C 57 % 1013,7 hPa 0,0 l/m? 17,4 km/h (3 Bft) SW 227 ? 3 min 403 W/m? 14,6 ?C 29,0 km/h (5 Bft)
03.09.2026 15:45 23,6 ?C 28,1 ?C 24,8 ?C 57 % 1013,7 hPa 0,0 l/m? 16,2 km/h (3 Bft) SW 218 ? 3 min 583 W/m? 14,6 ?C 24,1 km/h (4 Bft)
03.09.2026 15:48 23,5 ?C 27,9 ?C 24,9 ?C 56 % 1013,6 hPa 0,0 l/m? 17,9 km/h (3 Bft) SW 219 ? 3 min 502 W/m? 14,2 ?C 29,0 km/h (5 Bft)
03.09.2026 15:51 23,5 ?C 27,3 ?C 24,8 ?C 57 % 1013,7 hPa 0,0 l/m? 19,1 km/h (3 Bft) SW 225 ? 3 min 438 W/m? 14,5 ?C 29,0 km/h (5 Bft)
03.09.2026 15:54 23,3 ?C 26,6 ?C 24,5 ?C 57 % 1013,7 hPa 0,0 l/m? 16,5 km/h (3 Bft) W-SW 241 ? 0 min 289 W/m? 14,3 ?C 25,7 km/h (4 Bft)
03.09.2026 15:57 23,1 ?C 26,1 ?C 24,8 ?C 58 % 1013,7 hPa 0,0 l/m? 13,9 km/h (3 Bft) SW 222 ? 3 min 462 W/m? 14,4 ?C 24,1 km/h (4 Bft)
03.09.2026 16:00 23,2 ?C 25,8 ?C 24,7 ?C 58 % 1013,7 hPa 0,0 l/m? 16,3 km/h (3 Bft) SW 225 ? 0 min 229 W/m? 14,5 ?C 27,4 km/h (5 Bft)
03.09.2026 16:03 23,1 ?C 24,9 ?C 24,3 ?C 58 % 1013,7 hPa 0,0 l/m? 12,7 km/h (3 Bft) SW 216 ? 0 min 193 W/m? 14,4 ?C 27,4 km/h (5 Bft)
03.09.2026 16:06 22,9 ?C 24,3 ?C 23,9 ?C 58 % 1013,7 hPa 0,0 l/m? 14,9 km/h (3 Bft) SW 227 ? 0 min 108 W/m? 14,2 ?C 29,0 km/h (5 Bft)
03.09.2026 16:09 22,6 ?C 24,0 ?C 23,7 ?C 59 % 1013,7 hPa 0,0 l/m? 13,3 km/h (3 Bft) S-SW 210 ? 0 min 158 W/m? 14,2 ?C 24,1 km/h (4 Bft)
03.09.2026 16:12 22,6 ?C 24,4 ?C 24,0 ?C 60 % 1013,5 hPa 0,0 l/m? 14,3 km/h (3 Bft) S-SW 204 ? 0 min 245 W/m? 14,4 ?C 24,1 km/h (4 Bft)
03.09.2026 16:15 22,8 ?C 24,8 ?C 24,6 ?C 60 % 1013,5 hPa 0,0 l/m? 10,1 km/h (2 Bft) SW 225 ? 3 min 347 W/m? 14,6 ?C 20,9 km/h (4 Bft)
03.09.2026 16:18 23,2 ?C 25,5 ?C 25,5 ?C 59 % 1013,5 hPa 0,0 l/m? 14,7 km/h (3 Bft) SW 229 ? 3 min 557 W/m? 14,7 ?C 27,4 km/h (5 Bft)
03.09.2026 16:21 23,7 ?C 25,4 ?C 25,4 ?C 58 % 1013,5 hPa 0,0 l/m? 16,6 km/h (3 Bft) SW 234 ? 3 min 373 W/m? 14,9 ?C 27,4 km/h (5 Bft)
03.09.2026 16:24 23,5 ?C 24,4 ?C 24,3 ?C 57 % 1013,5 hPa 0,0 l/m? 16,9 km/h (3 Bft) SW 223 ? 0 min 131 W/m? 14,5 ?C 27,4 km/h (5 Bft)
03.09.2026 16:27 23,1 ?C 24,0 ?C 24,0 ?C 58 % 1013,4 hPa 0,0 l/m? 16,1 km/h (3 Bft) SW 222 ? 3 min 328 W/m? 14,4 ?C 27,4 km/h (5 Bft)
03.09.2026 16:30 23,1 ?C 24,2 ?C 24,4 ?C 60 % 1013,3 hPa 0,0 l/m? 13,4 km/h (3 Bft) SW 221 ? 0 min 263 W/m? 14,9 ?C 19,3 km/h (3 Bft)
03.09.2026 16:33 23,1 ?C 23,7 ?C 24,0 ?C 59 % 1013,4 hPa 0,0 l/m? 15,5 km/h (3 Bft) SW 228 ? 0 min 96 W/m? 14,6 ?C 29,0 km/h (5 Bft)
03.09.2026 16:36 22,9 ?C 23,3 ?C 23,7 ?C 59 % 1013,4 hPa 0,0 l/m? 15,1 km/h (3 Bft) SW 230 ? 0 min 89 W/m? 14,5 ?C 25,7 km/h (4 Bft)
03.09.2026 16:39 22,7 ?C 23,2 ?C 23,7 ?C 60 % 1013,5 hPa 0,0 l/m? 14,4 km/h (3 Bft) W-SW 239 ? 0 min 88 W/m? 14,5 ?C 24,1 km/h (4 Bft)
03.09.2026 16:42 22,6 ?C 23,1 ?C 23,7 ?C 60 % 1013,5 hPa 0,0 l/m? 13,2 km/h (3 Bft) SW 230 ? 0 min 94 W/m? 14,4 ?C 22,5 km/h (4 Bft)
03.09.2026 16:45 22,6 ?C 23,2 ?C 23,7 ?C 60 % 1013,5 hPa 0,0 l/m? 12,4 km/h (2 Bft) SW 220 ? 0 min 81 W/m? 14,4 ?C 24,1 km/h (4 Bft)
03.09.2026 16:48 22,6 ?C 22,9 ?C 23,5 ?C 60 % 1013,5 hPa 0,0 l/m? 15,0 km/h (3 Bft) SW 229 ? 0 min 67 W/m? 14,4 ?C 20,9 km/h (4 Bft)
03.09.2026 16:51 22,6 ?C 22,8 ?C 23,4 ?C 61 % 1013,6 hPa 0,0 l/m? 13,8 km/h (3 Bft) SW 230 ? 0 min 95 W/m? 14,7 ?C 24,1 km/h (4 Bft)
03.09.2026 16:54 22,5 ?C 22,7 ?C 23,1 ?C 61 % 1013,7 hPa 0,0 l/m? 21,3 km/h (4 Bft) W-SW 247 ? 0 min 107 W/m? 14,6 ?C 35,4 km/h (5 Bft)
03.09.2026 16:57 22,3 ?C 22,3 ?C 22,6 ?C 63 % 1013,6 hPa 0,0 l/m? 15,8 km/h (3 Bft) W-SW 249 ? 0 min 106 W/m? 14,9 ?C 27,4 km/h (5 Bft)
03.09.2026 17:00 21,9 ?C 21,7 ?C 22,5 ?C 65 % 1013,8 hPa 0,0 l/m? 14,2 km/h (3 Bft) SW 235 ? 0 min 87 W/m? 15,0 ?C 24,1 km/h (4 Bft)
03.09.2026 17:03 21,6 ?C 21,4 ?C 22,1 ?C 67 % 1013,7 hPa 0,0 l/m? 16,3 km/h (3 Bft) SW 227 ? 0 min 96 W/m? 15,2 ?C 35,4 km/h (5 Bft)
03.09.2026 17:06 21,4 ?C 21,2 ?C 22,1 ?C 67 % 1013,7 hPa 0,0 l/m? 16,1 km/h (3 Bft) W-SW 243 ? 0 min 83 W/m? 15,0 ?C 27,4 km/h (5 Bft)
03.09.2026 17:09 21,3 ?C 21,5 ?C 22,3 ?C 67 % 1013,6 hPa 0,0 l/m? 10,0 km/h (2 Bft) W-SW 238 ? 0 min 95 W/m? 14,9 ?C 16,1 km/h (3 Bft)
03.09.2026 17:12 21,4 ?C 21,5 ?C 22,4 ?C 67 % 1013,7 hPa 0,0 l/m? 7,9 km/h (2 Bft) W-SW 241 ? 0 min 60 W/m? 15,0 ?C 14,5 km/h (3 Bft)
03.09.2026 17:15 21,4 ?C 21,5 ?C 22,2 ?C 66 % 1013,6 hPa 0,0 l/m? 10,4 km/h (2 Bft) W-SW 242 ? 0 min 50 W/m? 14,8 ?C 19,3 km/h (3 Bft)
03.09.2026 17:18 21,4 ?C 21,5 ?C 22,2 ?C 66 % 1013,6 hPa 0,0 l/m? 7,3 km/h (2 Bft) SW 232 ? 0 min 55 W/m? 14,8 ?C 14,5 km/h (3 Bft)
03.09.2026 17:21 21,4 ?C 21,6 ?C 22,3 ?C 66 % 1013,5 hPa 0,0 l/m? 8,6 km/h (2 Bft) SW 223 ? 0 min 77 W/m? 14,8 ?C 20,9 km/h (4 Bft)
03.09.2026 17:24 21,4 ?C 21,6 ?C 22,3 ?C 67 % 1013,4 hPa 0,0 l/m? 8,9 km/h (2 Bft) SW 223 ? 0 min 77 W/m? 15,0 ?C 17,7 km/h (3 Bft)
03.09.2026 17:27 21,5 ?C 21,5 ?C 22,3 ?C 66 % 1013,4 hPa 0,0 l/m? 7,9 km/h (2 Bft) SW 224 ? 0 min 70 W/m? 14,9 ?C 20,9 km/h (4 Bft)
03.09.2026 17:30 21,5 ?C 21,5 ?C 22,3 ?C 66 % 1013,3 hPa 0,0 l/m? 9,5 km/h (2 Bft) SW 218 ? 0 min 63 W/m? 14,9 ?C 22,5 km/h (4 Bft)
03.09.2026 17:33 21,5 ?C 21,6 ?C 22,3 ?C 66 % 1013,2 hPa 0,0 l/m? 9,9 km/h (2 Bft) SW 222 ? 0 min 89 W/m? 14,9 ?C 16,1 km/h (3 Bft)
03.09.2026 17:36 21,6 ?C 21,8 ?C 22,4 ?C 65 % 1013,2 hPa 0,0 l/m? 13,1 km/h (3 Bft) S-SW 207 ? 0 min 121 W/m? 14,7 ?C 17,7 km/h (3 Bft)
03.09.2026 17:39 21,8 ?C 21,9 ?C 22,5 ?C 65 % 1013,1 hPa 0,0 l/m? 11,0 km/h (2 Bft) S-SW 210 ? 0 min 80 W/m? 14,9 ?C 20,9 km/h (4 Bft)
03.09.2026 17:42 21,8 ?C 21,6 ?C 22,3 ?C 64 % 1013,1 hPa 0,0 l/m? 10,6 km/h (2 Bft) S-SW 208 ? 0 min 52 W/m? 14,7 ?C 22,5 km/h (4 Bft)
03.09.2026 17:45 21,8 ?C 21,6 ?C 22,3 ?C 64 % 1013,1 hPa 0,0 l/m? 9,7 km/h (2 Bft) S-SW 213 ? 0 min 66 W/m? 14,7 ?C 19,3 km/h (3 Bft)
03.09.2026 17:48 21,8 ?C 21,7 ?C 22,4 ?C 64 % 1013,1 hPa 0,0 l/m? 8,8 km/h (2 Bft) SW 215 ? 0 min 78 W/m? 14,7 ?C 16,1 km/h (3 Bft)
03.09.2026 17:51 21,8 ?C 21,8 ?C 22,5 ?C 64 % 1013,1 hPa 0,0 l/m? 8,8 km/h (2 Bft) SW 222 ? 0 min 77 W/m? 14,7 ?C 17,7 km/h (3 Bft)
03.09.2026 17:54 21,9 ?C 21,7 ?C 22,6 ?C 64 % 1013,0 hPa 0,0 l/m? 8,1 km/h (2 Bft) S-SW 208 ? 0 min 68 W/m? 14,8 ?C 12,9 km/h (3 Bft)
03.09.2026 17:57 21,9 ?C 21,8 ?C 22,6 ?C 64 % 1013,0 hPa 0,0 l/m? 7,4 km/h (2 Bft) SW 224 ? 0 min 63 W/m? 14,8 ?C 14,5 km/h (3 Bft)
03.09.2026 18:00 21,9 ?C 21,7 ?C 22,5 ?C 64 % 1012,9 hPa 0,0 l/m? 7,5 km/h (2 Bft) SW 224 ? 0 min 54 W/m? 14,8 ?C 16,1 km/h (3 Bft)
03.09.2026 18:03 21,9 ?C 21,7 ?C 22,5 ?C 64 % 1012,9 hPa 0,0 l/m? 9,9 km/h (2 Bft) SW 218 ? 0 min 62 W/m? 14,8 ?C 17,7 km/h (3 Bft)
03.09.2026 18:06 22,0 ?C 21,7 ?C 22,6 ?C 64 % 1012,9 hPa 0,0 l/m? 6,3 km/h (2 Bft) SW 223 ? 0 min 54 W/m? 14,9 ?C 14,5 km/h (3 Bft)
03.09.2026 18:09 22,0 ?C 21,7 ?C 22,5 ?C 64 % 1012,9 hPa 0,0 l/m? 7,2 km/h (2 Bft) S-SW 213 ? 0 min 48 W/m? 14,9 ?C 14,5 km/h (3 Bft)
03.09.2026 18:12 22,0 ?C 21,6 ?C 22,4 ?C 63 % 1012,9 hPa 0,0 l/m? 8,0 km/h (2 Bft) SW 222 ? 0 min 31 W/m? 14,6 ?C 16,1 km/h (3 Bft)
03.09.2026 18:15 21,9 ?C 21,4 ?C 22,3 ?C 64 % 1012,9 hPa 0,0 l/m? 7,1 km/h (2 Bft) SW 218 ? 0 min 25 W/m? 14,8 ?C 14,5 km/h (3 Bft)
03.09.2026 18:18 21,9 ?C 21,3 ?C 22,2 ?C 64 % 1013,0 hPa 0,0 l/m? 8,7 km/h (2 Bft) W-SW 240 ? 0 min 29 W/m? 14,8 ?C 14,5 km/h (3 Bft)
03.09.2026 18:21 21,9 ?C 21,2 ?C 22,3 ?C 63 % 1012,9 hPa 0,0 l/m? 15,4 km/h (3 Bft) SW 232 ? 0 min 16 W/m? 14,5 ?C 24,1 km/h (4 Bft)
03.09.2026 18:24 22,0 ?C 21,2 ?C 22,3 ?C 62 % 1012,9 hPa 0,0 l/m? 16,8 km/h (3 Bft) SW 233 ? 0 min 15 W/m? 14,4 ?C 33,8 km/h (5 Bft)
03.09.2026 18:27 22,1 ?C 21,2 ?C 22,2 ?C 62 % 1013,0 hPa 0,0 l/m? 10,7 km/h (2 Bft) SW 221 ? 0 min 16 W/m? 14,5 ?C 20,9 km/h (4 Bft)
03.09.2026 18:30 22,1 ?C 21,2 ?C 22,1 ?C 62 % 1013,0 hPa 0,0 l/m? 13,6 km/h (3 Bft) W-SW 238 ? 0 min 13 W/m? 14,5 ?C 24,1 km/h (4 Bft)
03.09.2026 18:33 22,1 ?C 21,1 ?C 22,1 ?C 62 % 1013,0 hPa 0,0 l/m? 15,0 km/h (3 Bft) W-SW 238 ? 0 min 13 W/m? 14,5 ?C 25,7 km/h (4 Bft)
03.09.2026 18:36 22,0 ?C 21,2 ?C 22,1 ?C 62 % 1013,0 hPa 0,0 l/m? 12,4 km/h (2 Bft) W-SW 241 ? 0 min 18 W/m? 14,4 ?C 19,3 km/h (3 Bft)
03.09.2026 18:39 22,0 ?C 21,1 ?C 22,1 ?C 62 % 1013,2 hPa 0,0 l/m? 11,1 km/h (2 Bft) SW 233 ? 0 min 20 W/m? 14,4 ?C 20,9 km/h (4 Bft)
03.09.2026 18:42 21,9 ?C 21,0 ?C 22,0 ?C 63 % 1013,3 hPa 0,0 l/m? 11,4 km/h (2 Bft) W 263 ? 0 min 18 W/m? 14,5 ?C 20,9 km/h (4 Bft)
03.09.2026 18:45 21,8 ?C 20,8 ?C 21,8 ?C 64 % 1013,2 hPa 0,0 l/m? 17,7 km/h (3 Bft) W-SW 254 ? 0 min 16 W/m? 14,7 ?C 33,8 km/h (5 Bft)
03.09.2026 18:48 21,7 ?C 20,7 ?C 21,6 ?C 64 % 1013,2 hPa 0,0 l/m? 17,5 km/h (3 Bft) W-SW 246 ? 0 min 30 W/m? 14,6 ?C 29,0 km/h (5 Bft)
03.09.2026 18:51 21,6 ?C 20,8 ?C 21,6 ?C 65 % 1013,2 hPa 0,0 l/m? 20,1 km/h (4 Bft) W-SW 247 ? 0 min 39 W/m? 14,7 ?C 32,2 km/h (5 Bft)
03.09.2026 18:54 21,5 ?C 20,9 ?C 21,5 ?C 66 % 1013,2 hPa 0,0 l/m? 16,9 km/h (3 Bft) W-SW 240 ? 0 min 35 W/m? 14,9 ?C 30,6 km/h (5 Bft)
03.09.2026 18:57 21,4 ?C 20,7 ?C 21,3 ?C 66 % 1013,3 hPa 0,0 l/m? 16,0 km/h (3 Bft) W-SW 237 ? 0 min 33 W/m? 14,8 ?C 29,0 km/h (5 Bft)
03.09.2026 19:00 21,2 ?C 20,7 ?C 21,0 ?C 68 % 1013,3 hPa 0,0 l/m? 17,5 km/h (3 Bft) W-SW 245 ? 0 min 30 W/m? 15,1 ?C 33,8 km/h (5 Bft)
03.09.2026 19:03 21,0 ?C 20,5 ?C 20,8 ?C 69 % 1013,4 hPa 0,0 l/m? 13,5 km/h (3 Bft) W 260 ? 0 min 26 W/m? 15,1 ?C 22,5 km/h (4 Bft)
03.09.2026 19:06 20,8 ?C 20,4 ?C 20,7 ?C 70 % 1013,3 hPa 0,0 l/m? 10,5 km/h (2 Bft) W 268 ? 0 min 40 W/m? 15,1 ?C 19,3 km/h (3 Bft)
03.09.2026 19:09 20,6 ?C 20,3 ?C 20,6 ?C 71 % 1013,2 hPa 0,0 l/m? 12,4 km/h (2 Bft) W 266 ? 3 min 47 W/m? 15,2 ?C 19,3 km/h (3 Bft)
03.09.2026 19:12 20,3 ?C 20,0 ?C 20,5 ?C 72 % 1013,2 hPa 0,0 l/m? 5,0 km/h (1 Bft) W 272 ? 0 min 23 W/m? 15,1 ?C 11,3 km/h (2 Bft)
03.09.2026 19:15 20,1 ?C 19,9 ?C 20,4 ?C 73 % 1013,2 hPa 0,0 l/m? 6,1 km/h (2 Bft) W-SW 255 ? 0 min 23 W/m? 15,1 ?C 11,3 km/h (2 Bft)
03.09.2026 19:18 20,0 ?C 19,8 ?C 20,4 ?C 74 % 1013,2 hPa 0,0 l/m? 4,1 km/h (1 Bft) W-SW 241 ? 0 min 18 W/m? 15,2 ?C 8,0 km/h (2 Bft)
03.09.2026 19:21 20,0 ?C 19,8 ?C 20,3 ?C 74 % 1013,1 hPa 0,0 l/m? 4,2 km/h (1 Bft) SW 236 ? 0 min 9 W/m? 15,2 ?C 11,3 km/h (2 Bft)
03.09.2026 19:24 19,9 ?C 19,7 ?C 20,2 ?C 74 % 1013,1 hPa 0,0 l/m? 4,2 km/h (1 Bft) SW 235 ? 0 min 7 W/m? 15,1 ?C 11,3 km/h (2 Bft)
03.09.2026 19:27 19,9 ?C 19,7 ?C 20,1 ?C 74 % 1013,2 hPa 0,0 l/m? 2,3 km/h (1 Bft) SW 221 ? 0 min 5 W/m? 15,1 ?C 4,8 km/h (1 Bft)
03.09.2026 19:30 19,9 ?C 19,6 ?C 20,0 ?C 74 % 1013,2 hPa 0,0 l/m? 2,9 km/h (1 Bft) SW 222 ? 0 min 5 W/m? 15,1 ?C 4,8 km/h (1 Bft)
03.09.2026 19:33 19,8 ?C 19,5 ?C 19,9 ?C 74 % 1013,2 hPa 0,0 l/m? 4,2 km/h (1 Bft) S-SW 212 ? 0 min 5 W/m? 15,0 ?C 8,0 km/h (2 Bft)
03.09.2026 19:36 19,8 ?C 19,4 ?C 19,7 ?C 74 % 1013,3 hPa 0,0 l/m? 3,7 km/h (1 Bft) SW 224 ? 0 min 4 W/m? 15,0 ?C 9,7 km/h (2 Bft)
03.09.2026 19:39 19,7 ?C 19,2 ?C 19,6 ?C 74 % 1013,4 hPa 0,0 l/m? 4,1 km/h (1 Bft) SW 222 ? 0 min 4 W/m? 14,9 ?C 8,0 km/h (2 Bft)
03.09.2026 19:42 19,7 ?C 19,1 ?C 19,5 ?C 75 % 1013,2 hPa 0,0 l/m? 4,9 km/h (1 Bft) SW 220 ? 0 min 2 W/m? 15,1 ?C 9,7 km/h (2 Bft)
03.09.2026 19:45 19,6 ?C 18,8 ?C 19,3 ?C 75 % 1013,3 hPa 0,0 l/m? 5,1 km/h (1 Bft) S-SW 213 ? 0 min 2 W/m? 15,0 ?C 9,7 km/h (2 Bft)
03.09.2026 19:48 19,5 ?C 18,6 ?C 19,3 ?C 75 % 1013,3 hPa 0,0 l/m? 7,5 km/h (2 Bft) SW 217 ? 0 min 2 W/m? 14,9 ?C 12,9 km/h (3 Bft)
03.09.2026 19:51 19,5 ?C 18,6 ?C 19,2 ?C 75 % 1013,3 hPa 0,0 l/m? 6,4 km/h (2 Bft) SW 218 ? 0 min 1 W/m? 14,9 ?C 12,9 km/h (3 Bft)
03.09.2026 19:54 19,5 ?C 18,8 ?C 19,4 ?C 75 % 1013,4 hPa 0,0 l/m? 9,9 km/h (2 Bft) SW 220 ? 0 min 0 W/m? 14,9 ?C 16,1 km/h (3 Bft)
03.09.2026 19:57 19,6 ?C 19,0 ?C 19,6 ?C 75 % 1013,4 hPa 0,0 l/m? 8,8 km/h (2 Bft) SW 219 ? 0 min 0 W/m? 15,0 ?C 17,7 km/h (3 Bft)
03.09.2026 20:00 19,7 ?C 19,2 ?C 19,7 ?C 74 % 1013,4 hPa 0,0 l/m? 8,4 km/h (2 Bft) SW 219 ? 0 min 0 W/m? 14,9 ?C 17,7 km/h (3 Bft)
03.09.2026 20:03 19,8 ?C 19,2 ?C 19,7 ?C 74 % 1013,4 hPa 0,0 l/m? 8,5 km/h (2 Bft) SW 215 ? 0 min 0 W/m? 15,0 ?C 14,5 km/h (3 Bft)
03.09.2026 20:06 19,8 ?C 19,0 ?C 19,6 ?C 74 % 1013,5 hPa 0,0 l/m? 8,5 km/h (2 Bft) SW 226 ? 0 min 0 W/m? 15,0 ?C 17,7 km/h (3 Bft)
03.09.2026 20:09 19,8 ?C 18,9 ?C 19,4 ?C 74 % 1013,4 hPa 0,0 l/m? 9,4 km/h (2 Bft) SW 220 ? 0 min 0 W/m? 15,0 ?C 17,7 km/h (3 Bft)
03.09.2026 20:12 19,7 ?C 18,9 ?C 19,3 ?C 74 % 1013,4 hPa 0,0 l/m? 8,9 km/h (2 Bft) SW 224 ? 0 min 0 W/m? 14,9 ?C 16,1 km/h (3 Bft)
03.09.2026 20:15 19,7 ?C 18,9 ?C 19,5 ?C 74 % 1013,5 hPa 0,0 l/m? 9,8 km/h (2 Bft) SW 226 ? 0 min 0 W/m? 14,9 ?C 19,3 km/h (3 Bft)
03.09.2026 20:18 19,7 ?C 18,9 ?C 19,6 ?C 75 % 1013,6 hPa 0,0 l/m? 9,3 km/h (2 Bft) SW 221 ? 0 min 0 W/m? 15,1 ?C 17,7 km/h (3 Bft)
03.09.2026 20:21 19,7 ?C 18,9 ?C 19,5 ?C 75 % 1013,6 hPa 0,0 l/m? 8,4 km/h (2 Bft) SW 221 ? 0 min 0 W/m? 15,1 ?C 14,5 km/h (3 Bft)
03.09.2026 20:24 19,7 ?C 18,8 ?C 19,3 ?C 75 % 1013,6 hPa 0,0 l/m? 8,1 km/h (2 Bft) SW 225 ? 0 min 0 W/m? 15,1 ?C 16,1 km/h (3 Bft)
03.09.2026 20:27 19,6 ?C 18,7 ?C 19,2 ?C 75 % 1013,7 hPa 0,0 l/m? 6,1 km/h (2 Bft) SW 224 ? 0 min 0 W/m? 15,0 ?C 14,5 km/h (3 Bft)
03.09.2026 20:30 19,5 ?C 18,8 ?C 19,3 ?C 75 % 1013,7 hPa 0,0 l/m? 7,8 km/h (2 Bft) SW 218 ? 0 min 0 W/m? 14,9 ?C 14,5 km/h (3 Bft)
03.09.2026 20:33 19,5 ?C 18,9 ?C 19,4 ?C 76 % 1013,7 hPa 0,0 l/m? 7,9 km/h (2 Bft) SW 218 ? 0 min 0 W/m? 15,2 ?C 17,7 km/h (3 Bft)
03.09.2026 20:36 19,5 ?C 18,9 ?C 19,4 ?C 76 % 1013,8 hPa 0,0 l/m? 10,3 km/h (2 Bft) SW 226 ? 0 min 0 W/m? 15,2 ?C 19,3 km/h (3 Bft)
03.09.2026 20:39 19,5 ?C 18,8 ?C 19,3 ?C 76 % 1013,8 hPa 0,0 l/m? 10,0 km/h (2 Bft) SW 221 ? 0 min 0 W/m? 15,2 ?C 19,3 km/h (3 Bft)
03.09.2026 20:42 19,5 ?C 18,6 ?C 19,1 ?C 76 % 1013,8 hPa 0,0 l/m? 10,6 km/h (2 Bft) SW 227 ? 0 min 0 W/m? 15,2 ?C 19,3 km/h (3 Bft)
03.09.2026 20:45 19,4 ?C 18,5 ?C 19,0 ?C 76 % 1013,9 hPa 0,0 l/m? 9,1 km/h (2 Bft) W-SW 239 ? 0 min 0 W/m? 15,1 ?C 17,7 km/h (3 Bft)
03.09.2026 20:48 19,3 ?C 18,4 ?C 19,0 ?C 77 % 1013,9 hPa 0,0 l/m? 10,1 km/h (2 Bft) SW 235 ? 0 min 0 W/m? 15,2 ?C 19,3 km/h (3 Bft)
03.09.2026 20:51 19,3 ?C 18,3 ?C 18,9 ?C 77 % 1013,9 hPa 0,0 l/m? 7,4 km/h (2 Bft) W-SW 237 ? 0 min 0 W/m? 15,2 ?C 17,7 km/h (3 Bft)
03.09.2026 20:54 19,2 ?C 18,3 ?C 18,8 ?C 77 % 1013,9 hPa 0,0 l/m? 9,5 km/h (2 Bft) SW 232 ? 0 min 0 W/m? 15,1 ?C 17,7 km/h (3 Bft)
03.09.2026 20:57 19,1 ?C 18,3 ?C 18,8 ?C 77 % 1013,8 hPa 0,0 l/m? 10,0 km/h (2 Bft) SW 228 ? 0 min 0 W/m? 15,0 ?C 22,5 km/h (4 Bft)
03.09.2026 21:00 19,1 ?C 18,3 ?C 18,7 ?C 77 % 1013,8 hPa 0,0 l/m? 8,7 km/h (2 Bft) SW 234 ? 0 min 0 W/m? 15,0 ?C 14,5 km/h (3 Bft)
03.09.2026 21:03 19,0 ?C 18,2 ?C 18,6 ?C 78 % 1013,8 hPa 0,0 l/m? 6,4 km/h (2 Bft) SW 221 ? 0 min 0 W/m? 15,1 ?C 12,9 km/h (3 Bft)
03.09.2026 21:06 19,0 ?C 18,2 ?C 18,5 ?C 78 % 1013,7 hPa 0,0 l/m? 7,9 km/h (2 Bft) SW 229 ? 0 min 0 W/m? 15,1 ?C 16,1 km/h (3 Bft)
03.09.2026 21:09 18,8 ?C 18,1 ?C 18,4 ?C 78 % 1013,7 hPa 0,0 l/m? 6,7 km/h (2 Bft) SW 218 ? 0 min 0 W/m? 14,9 ?C 12,9 km/h (3 Bft)
03.09.2026 21:12 18,7 ?C 17,9 ?C 18,3 ?C 78 % 1013,8 hPa 0,0 l/m? 7,9 km/h (2 Bft) SW 228 ? 0 min 0 W/m? 14,8 ?C 16,1 km/h (3 Bft)
03.09.2026 21:15 18,6 ?C 17,8 ?C 18,2 ?C 79 % 1013,8 hPa 0,0 l/m? 6,2 km/h (2 Bft) SW 222 ? 0 min 0 W/m? 14,9 ?C 11,3 km/h (2 Bft)
03.09.2026 21:18 18,5 ?C 17,8 ?C 18,2 ?C 79 % 1013,7 hPa 0,0 l/m? 6,8 km/h (2 Bft) SW 221 ? 0 min 0 W/m? 14,8 ?C 14,5 km/h (3 Bft)
03.09.2026 21:21 18,5 ?C 17,8 ?C 18,2 ?C 79 % 1013,7 hPa 0,0 l/m? 7,6 km/h (2 Bft) SW 222 ? 0 min 0 W/m? 14,8 ?C 12,9 km/h (3 Bft)
03.09.2026 21:24 18,5 ?C 17,8 ?C 18,2 ?C 80 % 1013,7 hPa 0,0 l/m? 10,4 km/h (2 Bft) SW 226 ? 0 min 0 W/m? 15,0 ?C 19,3 km/h (3 Bft)
03.09.2026 21:27 18,5 ?C 17,8 ?C 18,1 ?C 80 % 1013,8 hPa 0,0 l/m? 8,8 km/h (2 Bft) SW 236 ? 0 min 0 W/m? 15,0 ?C 16,1 km/h (3 Bft)
03.09.2026 21:30 18,4 ?C 17,7 ?C 18,1 ?C 80 % 1013,8 hPa 0,0 l/m? 8,4 km/h (2 Bft) W-SW 237 ? 0 min 0 W/m? 14,9 ?C 16,1 km/h (3 Bft)
03.09.2026 21:33 18,4 ?C 17,6 ?C 18,0 ?C 80 % 1013,9 hPa 0,0 l/m? 7,7 km/h (2 Bft) SW 227 ? 0 min 0 W/m? 14,9 ?C 16,1 km/h (3 Bft)
03.09.2026 21:36 18,3 ?C 17,6 ?C 18,0 ?C 80 % 1013,8 hPa 0,0 l/m? 8,3 km/h (2 Bft) SW 230 ? 0 min 0 W/m? 14,8 ?C 17,7 km/h (3 Bft)
03.09.2026 21:39 18,3 ?C 17,6 ?C 17,9 ?C 80 % 1013,7 hPa 0,0 l/m? 8,3 km/h (2 Bft) SW 223 ? 0 min 0 W/m? 14,8 ?C 16,1 km/h (3 Bft)
03.09.2026 21:42 18,2 ?C 17,5 ?C 17,8 ?C 80 % 1013,6 hPa 0,0 l/m? 6,9 km/h (2 Bft) S-SW 212 ? 0 min 0 W/m? 14,7 ?C 14,5 km/h (3 Bft)
03.09.2026 21:45 18,1 ?C 17,5 ?C 17,7 ?C 81 % 1013,6 hPa 0,0 l/m? 7,4 km/h (2 Bft) SW 220 ? 0 min 0 W/m? 14,8 ?C 14,5 km/h (3 Bft)
03.09.2026 21:48 18,1 ?C 17,5 ?C 17,7 ?C 81 % 1013,7 hPa 0,0 l/m? 7,5 km/h (2 Bft) S-SW 212 ? 0 min 0 W/m? 14,8 ?C 16,1 km/h (3 Bft)
03.09.2026 21:51 18,1 ?C 17,4 ?C 17,8 ?C 81 % 1013,6 hPa 0,0 l/m? 9,0 km/h (2 Bft) SW 217 ? 0 min 0 W/m? 14,8 ?C 19,3 km/h (3 Bft)
03.09.2026 21:54 18,0 ?C 17,3 ?C 17,6 ?C 81 % 1013,6 hPa 0,0 l/m? 6,3 km/h (2 Bft) S-SW 212 ? 0 min 0 W/m? 14,7 ?C 16,1 km/h (3 Bft)
03.09.2026 21:57 18,0 ?C 17,3 ?C 17,6 ?C 81 % 1013,6 hPa 0,0 l/m? 6,9 km/h (2 Bft) S-SW 211 ? 0 min 0 W/m? 14,7 ?C 14,5 km/h (3 Bft)
03.09.2026 22:00 18,0 ?C 17,3 ?C 17,5 ?C 81 % 1013,7 hPa 0,0 l/m? 5,8 km/h (2 Bft) S-SW 203 ? 0 min 0 W/m? 14,7 ?C 12,9 km/h (3 Bft)
03.09.2026 22:03 17,9 ?C 17,3 ?C 17,6 ?C 81 % 1013,8 hPa 0,0 l/m? 5,6 km/h (2 Bft) SW 214 ? 0 min 0 W/m? 14,6 ?C 12,9 km/h (3 Bft)
03.09.2026 22:06 17,9 ?C 17,3 ?C 17,6 ?C 81 % 1013,9 hPa 0,0 l/m? 6,9 km/h (2 Bft) SW 229 ? 0 min 0 W/m? 14,6 ?C 14,5 km/h (3 Bft)
03.09.2026 22:09 17,9 ?C 17,3 ?C 17,6 ?C 81 % 1013,9 hPa 0,0 l/m? 5,9 km/h (2 Bft) W-SW 238 ? 0 min 0 W/m? 14,6 ?C 12,9 km/h (3 Bft)
03.09.2026 22:12 17,9 ?C 17,3 ?C 17,7 ?C 81 % 1013,8 hPa 0,0 l/m? 6,9 km/h (2 Bft) SW 231 ? 0 min 0 W/m? 14,6 ?C 14,5 km/h (3 Bft)
03.09.2026 22:15 17,9 ?C 17,2 ?C 17,7 ?C 81 % 1013,8 hPa 0,0 l/m? 6,7 km/h (2 Bft) SW 234 ? 0 min 0 W/m? 14,6 ?C 16,1 km/h (3 Bft)
03.09.2026 22:18 17,9 ?C 17,3 ?C 17,8 ?C 81 % 1013,9 hPa 0,0 l/m? 6,9 km/h (2 Bft) SW 231 ? 0 min 0 W/m? 14,6 ?C 14,5 km/h (3 Bft)
03.09.2026 22:21 18,0 ?C 17,3 ?C 17,7 ?C 81 % 1013,9 hPa 0,0 l/m? 5,8 km/h (2 Bft) SW 221 ? 0 min 0 W/m? 14,7 ?C 12,9 km/h (3 Bft)
03.09.2026 22:24 18,0 ?C 17,3 ?C 17,6 ?C 81 % 1014,0 hPa 0,0 l/m? 6,4 km/h (2 Bft) SW 218 ? 0 min 0 W/m? 14,7 ?C 12,9 km/h (3 Bft)
03.09.2026 22:27 17,9 ?C 17,5 ?C 17,6 ?C 81 % 1014,0 hPa 0,0 l/m? 6,6 km/h (2 Bft) S-SW 201 ? 0 min 0 W/m? 14,6 ?C 14,5 km/h (3 Bft)
03.09.2026 22:30 17,9 ?C 17,5 ?C 17,7 ?C 81 % 1014,0 hPa 0,0 l/m? 5,8 km/h (2 Bft) SW 215 ? 0 min 0 W/m? 14,6 ?C 9,7 km/h (2 Bft)
03.09.2026 22:33 18,0 ?C 17,6 ?C 17,8 ?C 81 % 1013,8 hPa 0,0 l/m? 5,6 km/h (2 Bft) SW 217 ? 0 min 0 W/m? 14,7 ?C 11,3 km/h (2 Bft)
03.09.2026 22:36 18,0 ?C 17,7 ?C 17,8 ?C 81 % 1013,8 hPa 0,0 l/m? 5,7 km/h (2 Bft) SW 214 ? 0 min 0 W/m? 14,7 ?C 11,3 km/h (2 Bft)
03.09.2026 22:39 18,0 ?C 17,7 ?C 17,9 ?C 81 % 1013,6 hPa 0,0 l/m? 9,0 km/h (2 Bft) SW 218 ? 0 min 0 W/m? 14,7 ?C 16,1 km/h (3 Bft)
03.09.2026 22:42 18,1 ?C 17,7 ?C 17,9 ?C 81 % 1013,6 hPa 0,0 l/m? 6,2 km/h (2 Bft) SW 221 ? 0 min 0 W/m? 14,8 ?C 16,1 km/h (3 Bft)
03.09.2026 22:45 18,1 ?C 17,7 ?C 18,0 ?C 81 % 1013,6 hPa 0,0 l/m? 5,0 km/h (1 Bft) SW 216 ? 0 min 0 W/m? 14,8 ?C 14,5 km/h (3 Bft)
03.09.2026 22:48 18,1 ?C 17,8 ?C 18,0 ?C 81 % 1013,5 hPa 0,0 l/m? 5,9 km/h (2 Bft) SW 217 ? 0 min 0 W/m? 14,8 ?C 9,7 km/h (2 Bft)
03.09.2026 22:51 18,2 ?C 17,8 ?C 18,1 ?C 81 % 1013,6 hPa 0,0 l/m? 6,0 km/h (2 Bft) SW 228 ? 0 min 0 W/m? 14,9 ?C 16,1 km/h (3 Bft)
03.09.2026 22:54 18,2 ?C 17,8 ?C 18,0 ?C 81 % 1013,6 hPa 0,0 l/m? 4,2 km/h (1 Bft) SW 229 ? 0 min 0 W/m? 14,9 ?C 8,0 km/h (2 Bft)
03.09.2026 22:57 18,2 ?C 17,8 ?C 18,0 ?C 81 % 1013,7 hPa 0,0 l/m? 4,8 km/h (1 Bft) SW 221 ? 0 min 0 W/m? 14,9 ?C 8,0 km/h (2 Bft)
03.09.2026 23:00 18,2 ?C 17,8 ?C 18,0 ?C 81 % 1013,7 hPa 0,0 l/m? 5,8 km/h (2 Bft) SW 227 ? 0 min 0 W/m? 14,9 ?C 14,5 km/h (3 Bft)
03.09.2026 23:03 18,2 ?C 17,8 ?C 18,1 ?C 81 % 1013,7 hPa 0,0 l/m? 6,1 km/h (2 Bft) SW 226 ? 0 min 0 W/m? 14,9 ?C 12,9 km/h (3 Bft)
03.09.2026 23:06 18,2 ?C 17,8 ?C 18,0 ?C 81 % 1013,7 hPa 0,0 l/m? 5,1 km/h (1 Bft) SW 225 ? 0 min 0 W/m? 14,9 ?C 11,3 km/h (2 Bft)
03.09.2026 23:09 18,2 ?C 17,8 ?C 18,0 ?C 81 % 1013,8 hPa 0,0 l/m? 5,7 km/h (2 Bft) SW 222 ? 0 min 0 W/m? 14,9 ?C 12,9 km/h (3 Bft)
03.09.2026 23:12 18,2 ?C 17,9 ?C 18,1 ?C 81 % 1013,8 hPa 0,0 l/m? 6,5 km/h (2 Bft) S-SW 212 ? 0 min 0 W/m? 14,9 ?C 11,3 km/h (2 Bft)
03.09.2026 23:15 18,2 ?C 17,9 ?C 18,1 ?C 81 % 1013,7 hPa 0,0 l/m? 7,8 km/h (2 Bft) SW 218 ? 0 min 0 W/m? 14,9 ?C 16,1 km/h (3 Bft)
03.09.2026 23:18 18,3 ?C 17,9 ?C 18,1 ?C 80 % 1013,7 hPa 0,0 l/m? 4,8 km/h (1 Bft) SW 226 ? 0 min 0 W/m? 14,8 ?C 8,0 km/h (2 Bft)
03.09.2026 23:21 18,2 ?C 17,9 ?C 18,1 ?C 81 % 1013,8 hPa 0,0 l/m? 5,1 km/h (1 Bft) SW 224 ? 0 min 0 W/m? 14,9 ?C 8,0 km/h (2 Bft)
03.09.2026 23:24 18,2 ?C 17,9 ?C 18,1 ?C 81 % 1013,7 hPa 0,0 l/m? 6,2 km/h (2 Bft) SW 216 ? 0 min 0 W/m? 14,9 ?C 12,9 km/h (3 Bft)
03.09.2026 23:27 18,2 ?C 17,9 ?C 18,1 ?C 81 % 1013,7 hPa 0,0 l/m? 6,0 km/h (2 Bft) W-SW 238 ? 0 min 0 W/m? 14,9 ?C 11,3 km/h (2 Bft)
03.09.2026 23:30 18,2 ?C 17,9 ?C 18,1 ?C 81 % 1013,7 hPa 0,0 l/m? 5,3 km/h (1 Bft) SW 217 ? 0 min 0 W/m? 14,9 ?C 8,0 km/h (2 Bft)
03.09.2026 23:33 18,2 ?C 17,9 ?C 18,1 ?C 81 % 1013,7 hPa 0,0 l/m? 5,6 km/h (2 Bft) SW 234 ? 0 min 0 W/m? 14,9 ?C 12,9 km/h (3 Bft)
03.09.2026 23:36 18,3 ?C 17,9 ?C 18,2 ?C 81 % 1013,8 hPa 0,0 l/m? 5,4 km/h (2 Bft) SW 228 ? 0 min 0 W/m? 15,0 ?C 16,1 km/h (3 Bft)
03.09.2026 23:39 18,3 ?C 17,9 ?C 18,2 ?C 81 % 1013,8 hPa 0,0 l/m? 8,0 km/h (2 Bft) SW 235 ? 0 min 0 W/m? 15,0 ?C 12,9 km/h (3 Bft)
03.09.2026 23:42 18,3 ?C 17,9 ?C 18,2 ?C 80 % 1013,7 hPa 0,0 l/m? 7,8 km/h (2 Bft) SW 233 ? 0 min 0 W/m? 14,8 ?C 14,5 km/h (3 Bft)
03.09.2026 23:45 18,3 ?C 17,9 ?C 18,2 ?C 80 % 1013,7 hPa 0,0 l/m? 5,4 km/h (2 Bft) SW 227 ? 0 min 0 W/m? 14,8 ?C 9,7 km/h (2 Bft)
03.09.2026 23:48 18,3 ?C 18,0 ?C 18,2 ?C 80 % 1013,7 hPa 0,0 l/m? 4,3 km/h (1 Bft) W-SW 237 ? 0 min 0 W/m? 14,8 ?C 8,0 km/h (2 Bft)
03.09.2026 23:51 18,3 ?C 17,9 ?C 18,2 ?C 80 % 1013,8 hPa 0,0 l/m? 5,8 km/h (2 Bft) W-SW 241 ? 0 min 0 W/m? 14,8 ?C 14,5 km/h (3 Bft)
03.09.2026 23:54 18,3 ?C 17,9 ?C 18,2 ?C 80 % 1013,9 hPa 0,0 l/m? 5,4 km/h (2 Bft) W-SW 244 ? 0 min 0 W/m? 14,8 ?C 11,3 km/h (2 Bft)
03.09.2026 23:57 18,3 ?C 17,9 ?C 18,2 ?C 80 % 1013,9 hPa 0,0 l/m? 6,2 km/h (2 Bft) W-SW 248 ? 0 min 0 W/m? 14,8 ?C 12,9 km/h (3 Bft)
04.09.2026 00:00 18,3 ?C 17,9 ?C 18,2 ?C 81 % 1013,9 hPa 0,0 l/m? 5,1 km/h (1 Bft) W-SW 253 ? 0 min 0 W/m? 15,0 ?C 11,3 km/h (2 Bft)
04.09.2026 00:03 18,3 ?C 17,9 ?C 18,3 ?C 80 % 1013,9 hPa 0,0 l/m? 5,0 km/h (1 Bft) W-SW 247 ? 0 min 0 W/m? 14,8 ?C 11,3 km/h (2 Bft)
04.09.2026 00:06 18,3 ?C 17,9 ?C 18,3 ?C 80 % 1014,0 hPa 0,0 l/m? 5,1 km/h (1 Bft) W 263 ? 0 min 0 W/m? 14,8 ?C 11,3 km/h (2 Bft)
04.09.2026 00:09 18,3 ?C 17,9 ?C 18,3 ?C 80 % 1014,1 hPa 0,0 l/m? 8,1 km/h (2 Bft) W 271 ? 0 min 0 W/m? 14,8 ?C 14,5 km/h (3 Bft)
04.09.2026 00:12 18,4 ?C 17,9 ?C 18,2 ?C 81 % 1014,2 hPa 0,0 l/m? 7,0 km/h (2 Bft) W 271 ? 0 min 0 W/m? 15,1 ?C 19,3 km/h (3 Bft)
04.09.2026 00:15 18,3 ?C 17,7 ?C 18,0 ?C 81 % 1014,1 hPa 0,0 l/m? 10,1 km/h (2 Bft) W-SW 248 ? 0 min 0 W/m? 15,0 ?C 17,7 km/h (3 Bft)
04.09.2026 00:18 18,1 ?C 17,5 ?C 17,8 ?C 82 % 1014,1 hPa 0,0 l/m? 7,6 km/h (2 Bft) W-SW 238 ? 0 min 0 W/m? 15,0 ?C 12,9 km/h (3 Bft)
04.09.2026 00:21 17,8 ?C 17,4 ?C 17,6 ?C 83 % 1014,0 hPa 0,0 l/m? 5,7 km/h (2 Bft) W 270 ? 0 min 0 W/m? 14,9 ?C 11,3 km/h (2 Bft)
04.09.2026 00:24 17,6 ?C 17,4 ?C 17,6 ?C 84 % 1014,0 hPa 0,0 l/m? 4,3 km/h (1 Bft) W 263 ? 0 min 0 W/m? 14,9 ?C 6,4 km/h (2 Bft)
04.09.2026 00:27 17,5 ?C 17,4 ?C 17,6 ?C 84 % 1013,9 hPa 0,0 l/m? 2,6 km/h (1 Bft) W 267 ? 0 min 0 W/m? 14,8 ?C 4,8 km/h (1 Bft)
04.09.2026 00:30 17,4 ?C 17,4 ?C 17,5 ?C 85 % 1013,9 hPa 0,0 l/m? 2,9 km/h (1 Bft) W 269 ? 0 min 0 W/m? 14,8 ?C 4,8 km/h (1 Bft)
04.09.2026 00:33 17,3 ?C 17,4 ?C 17,5 ?C 85 % 1013,9 hPa 0,0 l/m? 2,4 km/h (1 Bft) W-SW 258 ? 0 min 0 W/m? 14,8 ?C 4,8 km/h (1 Bft)
04.09.2026 00:36 17,3 ?C 17,3 ?C 17,4 ?C 85 % 1013,9 hPa 0,0 l/m? 0,8 km/h (0 Bft) W 259 ? 0 min 0 W/m? 14,8 ?C 3,2 km/h (1 Bft)
04.09.2026 00:39 17,3 ?C 17,3 ?C 17,4 ?C 86 % 1013,8 hPa 0,0 l/m? 1,9 km/h (1 Bft) W-SW 257 ? 0 min 0 W/m? 14,9 ?C 3,2 km/h (1 Bft)
04.09.2026 00:42 17,3 ?C 17,2 ?C 17,3 ?C 86 % 1013,8 hPa 0,0 l/m? 1,3 km/h (1 Bft) W-SW 253 ? 0 min 0 W/m? 14,9 ?C 3,2 km/h (1 Bft)
04.09.2026 00:45 17,2 ?C 17,2 ?C 17,3 ?C 86 % 1013,9 hPa 0,0 l/m? 0,0 km/h (0 Bft) N 0 ? 0 min 0 W/m? 14,8 ?C 0,0 km/h (0 Bft)
04.09.2026 00:48 17,2 ?C 17,3 ?C 17,3 ?C 86 % 1013,9 hPa 0,0 l/m? 0,0 km/h (0 Bft) N 0 ? 0 min 0 W/m? 14,8 ?C 0,0 km/h (0 Bft)
04.09.2026 00:51 17,2 ?C 17,3 ?C 17,3 ?C 86 % 1014,0 hPa 0,0 l/m? 0,0 km/h (0 Bft) N 0 ? 0 min 0 W/m? 14,8 ?C 0,0 km/h (0 Bft)
04.09.2026 00:54 17,1 ?C 17,2 ?C 17,3 ?C 86 % 1013,9 hPa 0,0 l/m? 0,0 km/h (0 Bft) N 0 ? 0 min 0 W/m? 14,7 ?C 0,0 km/h (0 Bft)
04.09.2026 00:57 17,2 ?C 17,2 ?C 17,3 ?C 86 % 1013,9 hPa 0,0 l/m? 3,0 km/h (1 Bft) S 185 ? 0 min 0 W/m? 14,8 ?C 4,8 km/h (1 Bft)
04.09.2026 01:00 17,1 ?C 17,2 ?C 17,2 ?C 86 % 1013,9 hPa 0,0 l/m? 2,1 km/h (1 Bft) S 185 ? 0 min 0 W/m? 14,7 ?C 3,2 km/h (1 Bft)
04.09.2026 01:03 17,1 ?C 17,0 ?C 17,1 ?C 86 % 1013,9 hPa 0,0 l/m? 2,0 km/h (1 Bft) S 189 ? 0 min 0 W/m? 14,7 ?C 3,2 km/h (1 Bft)
04.09.2026 01:06 17,1 ?C 16,9 ?C 17,0 ?C 86 % 1013,8 hPa 0,0 l/m? 2,2 km/h (1 Bft) S 187 ? 0 min 0 W/m? 14,7 ?C 4,8 km/h (1 Bft)
04.09.2026 01:09 17,1 ?C 16,8 ?C 16,9 ?C 86 % 1013,8 hPa 0,0 l/m? 2,3 km/h (1 Bft) S-SW 199 ? 0 min 0 W/m? 14,7 ?C 3,2 km/h (1 Bft)
04.09.2026 01:12 17,0 ?C 16,7 ?C 17,0 ?C 86 % 1013,7 hPa 0,0 l/m? 3,1 km/h (1 Bft) S 185 ? 0 min 0 W/m? 14,6 ?C 8,0 km/h (2 Bft)
04.09.2026 01:15 17,1 ?C 16,7 ?C 17,0 ?C 86 % 1013,8 hPa 0,0 l/m? 3,8 km/h (1 Bft) S 185 ? 0 min 0 W/m? 14,7 ?C 6,4 km/h (2 Bft)
04.09.2026 01:18 17,1 ?C 16,6 ?C 16,9 ?C 85 % 1013,7 hPa 0,0 l/m? 5,7 km/h (2 Bft) S 185 ? 0 min 0 W/m? 14,6 ?C 11,3 km/h (2 Bft)
04.09.2026 01:21 17,1 ?C 16,5 ?C 16,8 ?C 85 % 1013,7 hPa 0,0 l/m? 3,8 km/h (1 Bft) S 183 ? 0 min 0 W/m? 14,6 ?C 8,0 km/h (2 Bft)
04.09.2026 01:24 17,1 ?C 16,4 ?C 16,8 ?C 85 % 1013,7 hPa 0,0 l/m? 4,5 km/h (1 Bft) S-SW 210 ? 0 min 0 W/m? 14,6 ?C 11,3 km/h (2 Bft)
04.09.2026 01:27 17,1 ?C 16,5 ?C 16,8 ?C 84 % 1013,7 hPa 0,0 l/m? 2,6 km/h (1 Bft) W-SW 256 ? 0 min 0 W/m? 14,4 ?C 6,4 km/h (2 Bft)
04.09.2026 01:30 17,1 ?C 16,5 ?C 16,8 ?C 84 % 1013,6 hPa 0,0 l/m? 3,0 km/h (1 Bft) SW 226 ? 0 min 0 W/m? 14,4 ?C 4,8 km/h (1 Bft)
04.09.2026 01:33 17,1 ?C 16,5 ?C 16,8 ?C 84 % 1013,6 hPa 0,0 l/m? 2,6 km/h (1 Bft) SW 230 ? 0 min 0 W/m? 14,4 ?C 6,4 km/h (2 Bft)
04.09.2026 01:36 17,1 ?C 16,5 ?C 16,8 ?C 84 % 1013,6 hPa 0,0 l/m? 3,2 km/h (1 Bft) SW 223 ? 0 min 0 W/m? 14,4 ?C 4,8 km/h (1 Bft)
04.09.2026 01:39 17,1 ?C 16,6 ?C 16,8 ?C 84 % 1013,7 hPa 0,0 l/m? 2,6 km/h (1 Bft) S-SW 204 ? 0 min 0 W/m? 14,4 ?C 4,8 km/h (1 Bft)
04.09.2026 01:42 17,1 ?C 16,6 ?C 16,9 ?C 84 % 1013,6 hPa 0,0 l/m? 4,6 km/h (1 Bft) W-SW 243 ? 0 min 0 W/m? 14,4 ?C 8,0 km/h (2 Bft)
04.09.2026 01:45 17,1 ?C 16,6 ?C 17,0 ?C 84 % 1013,6 hPa 0,0 l/m? 5,1 km/h (1 Bft) SW 228 ? 0 min 0 W/m? 14,4 ?C 9,7 km/h (2 Bft)
04.09.2026 01:48 17,2 ?C 16,6 ?C 17,0 ?C 84 % 1013,5 hPa 0,0 l/m? 5,0 km/h (1 Bft) SW 226 ? 0 min 0 W/m? 14,5 ?C 8,0 km/h (2 Bft)
04.09.2026 01:51 17,2 ?C 16,6 ?C 17,0 ?C 84 % 1013,5 hPa 0,0 l/m? 4,4 km/h (1 Bft) SW 215 ? 0 min 0 W/m? 14,5 ?C 8,0 km/h (2 Bft)
04.09.2026 01:54 17,2 ?C 16,6 ?C 17,1 ?C 84 % 1013,5 hPa 0,0 l/m? 6,3 km/h (2 Bft) W-SW 252 ? 0 min 0 W/m? 14,5 ?C 16,1 km/h (3 Bft)
04.09.2026 01:57 17,3 ?C 16,6 ?C 17,3 ?C 84 % 1013,4 hPa 0,0 l/m? 4,9 km/h (1 Bft) SW 227 ? 0 min 0 W/m? 14,6 ?C 14,5 km/h (3 Bft)
04.09.2026 02:00 17,4 ?C 16,7 ?C 17,3 ?C 84 % 1013,4 hPa 0,0 l/m? 7,0 km/h (2 Bft) SW 228 ? 0 min 0 W/m? 14,7 ?C 12,9 km/h (3 Bft)
04.09.2026 02:03 17,5 ?C 16,7 ?C 17,2 ?C 83 % 1013,4 hPa 0,0 l/m? 5,1 km/h (1 Bft) SW 233 ? 0 min 0 W/m? 14,6 ?C 9,7 km/h (2 Bft)
04.09.2026 02:06 17,5 ?C 16,7 ?C 17,2 ?C 83 % 1013,4 hPa 0,0 l/m? 4,4 km/h (1 Bft) SW 225 ? 0 min 0 W/m? 14,6 ?C 6,4 km/h (2 Bft)
04.09.2026 02:09 17,5 ?C 16,7 ?C 17,1 ?C 83 % 1013,3 hPa 0,0 l/m? 4,3 km/h (1 Bft) S-SW 210 ? 0 min 0 W/m? 14,6 ?C 6,4 km/h (2 Bft)
04.09.2026 02:12 17,4 ?C 16,8 ?C 17,1 ?C 83 % 1013,3 hPa 0,0 l/m? 3,4 km/h (1 Bft) SW 227 ? 0 min 0 W/m? 14,5 ?C 6,4 km/h (2 Bft)
04.09.2026 02:15 17,4 ?C 16,7 ?C 17,0 ?C 83 % 1013,2 hPa 0,0 l/m? 2,7 km/h (1 Bft) SW 234 ? 0 min 0 W/m? 14,5 ?C 4,8 km/h (1 Bft)
04.09.2026 02:18 17,4 ?C 16,7 ?C 17,0 ?C 83 % 1013,3 hPa 0,0 l/m? 2,7 km/h (1 Bft) S-SW 196 ? 0 min 0 W/m? 14,5 ?C 6,4 km/h (2 Bft)
04.09.2026 02:21 17,3 ?C 16,6 ?C 16,9 ?C 84 % 1013,3 hPa 0,0 l/m? 2,9 km/h (1 Bft) SW 219 ? 0 min 0 W/m? 14,6 ?C 4,8 km/h (1 Bft)
04.09.2026 02:24 17,2 ?C 16,6 ?C 16,8 ?C 84 % 1013,4 hPa 0,0 l/m? 1,9 km/h (1 Bft) SW 234 ? 0 min 0 W/m? 14,5 ?C 3,2 km/h (1 Bft)
04.09.2026 02:27 17,2 ?C 16,6 ?C 16,8 ?C 84 % 1013,4 hPa 0,0 l/m? 2,8 km/h (1 Bft) S-SW 197 ? 0 min 0 W/m? 14,5 ?C 6,4 km/h (2 Bft)
04.09.2026 02:30 17,1 ?C 16,6 ?C 16,9 ?C 84 % 1013,3 hPa 0,0 l/m? 2,9 km/h (1 Bft) S-SW 198 ? 0 min 0 W/m? 14,4 ?C 6,4 km/h (2 Bft)
04.09.2026 02:33 17,1 ?C 16,6 ?C 16,8 ?C 84 % 1013,3 hPa 0,0 l/m? 2,5 km/h (1 Bft) S-SW 205 ? 0 min 0 W/m? 14,4 ?C 6,4 km/h (2 Bft)
04.09.2026 02:36 17,1 ?C 16,6 ?C 16,9 ?C 84 % 1013,3 hPa 0,0 l/m? 2,8 km/h (1 Bft) S-SW 205 ? 0 min 0 W/m? 14,4 ?C 6,4 km/h (2 Bft)
04.09.2026 02:39 17,1 ?C 16,6 ?C 16,9 ?C 84 % 1013,2 hPa 0,0 l/m? 2,2 km/h (1 Bft) S-SW 205 ? 0 min 0 W/m? 14,4 ?C 4,8 km/h (1 Bft)
04.09.2026 02:42 17,1 ?C 16,6 ?C 16,9 ?C 84 % 1013,2 hPa 0,0 l/m? 3,4 km/h (1 Bft) S-SW 205 ? 0 min 0 W/m? 14,4 ?C 6,4 km/h (2 Bft)
04.09.2026 02:45 17,1 ?C 16,7 ?C 16,9 ?C 84 % 1013,1 hPa 0,0 l/m? 2,8 km/h (1 Bft) S-SW 205 ? 0 min 0 W/m? 14,4 ?C 4,8 km/h (1 Bft)
04.09.2026 02:48 17,1 ?C 16,6 ?C 16,9 ?C 84 % 1013,1 hPa 0,0 l/m? 3,9 km/h (1 Bft) S-SW 208 ? 0 min 0 W/m? 14,4 ?C 6,4 km/h (2 Bft)
04.09.2026 02:51 17,1 ?C 16,7 ?C 16,9 ?C 84 % 1013,0 hPa 0,0 l/m? 3,7 km/h (1 Bft) S-SW 205 ? 0 min 0 W/m? 14,4 ?C 6,4 km/h (2 Bft)
04.09.2026 02:54 17,1 ?C 16,6 ?C 16,8 ?C 84 % 1013,0 hPa 0,0 l/m? 2,6 km/h (1 Bft) S-SW 205 ? 0 min 0 W/m? 14,4 ?C 4,8 km/h (1 Bft)
04.09.2026 02:57 17,1 ?C 16,6 ?C 16,8 ?C 84 % 1013,0 hPa 0,0 l/m? 3,2 km/h (1 Bft) S-SW 204 ? 0 min 0 W/m? 14,4 ?C 4,8 km/h (1 Bft)
04.09.2026 03:00 17,1 ?C 16,6 ?C 16,8 ?C 84 % 1013,0 hPa 0,0 l/m? 2,7 km/h (1 Bft) S-SW 195 ? 0 min 0 W/m? 14,4 ?C 4,8 km/h (1 Bft)
04.09.2026 03:03 17,1 ?C 16,6 ?C 16,8 ?C 84 % 1013,0 hPa 0,0 l/m? 3,9 km/h (1 Bft) S-SW 196 ? 0 min 0 W/m? 14,4 ?C 8,0 km/h (2 Bft)
04.09.2026 03:06 17,1 ?C 16,7 ?C 16,9 ?C 84 % 1013,0 hPa 0,0 l/m? 5,1 km/h (1 Bft) SW 228 ? 0 min 0 W/m? 14,4 ?C 12,9 km/h (3 Bft)
04.09.2026 03:09 17,1 ?C 16,7 ?C 17,0 ?C 84 % 1013,0 hPa 0,0 l/m? 4,4 km/h (1 Bft) SW 228 ? 0 min 0 W/m? 14,4 ?C 8,0 km/h (2 Bft)
04.09.2026 03:12 17,2 ?C 16,7 ?C 17,0 ?C 84 % 1013,0 hPa 0,0 l/m? 3,9 km/h (1 Bft) SW 229 ? 0 min 0 W/m? 14,5 ?C 8,0 km/h (2 Bft)
04.09.2026 03:15 17,2 ?C 16,7 ?C 17,0 ?C 84 % 1013,0 hPa 0,0 l/m? 4,2 km/h (1 Bft) SW 219 ? 0 min 0 W/m? 14,5 ?C 8,0 km/h (2 Bft)
04.09.2026 03:18 17,2 ?C 16,8 ?C 17,0 ?C 84 % 1013,0 hPa 0,0 l/m? 4,5 km/h (1 Bft) SW 224 ? 0 min 0 W/m? 14,5 ?C 9,7 km/h (2 Bft)
04.09.2026 03:21 17,3 ?C 16,8 ?C 17,0 ?C 84 % 1013,0 hPa 0,0 l/m? 4,5 km/h (1 Bft) SW 229 ? 0 min 0 W/m? 14,6 ?C 8,0 km/h (2 Bft)
04.09.2026 03:24 17,3 ?C 16,8 ?C 17,1 ?C 84 % 1012,9 hPa 0,0 l/m? 4,6 km/h (1 Bft) S-SW 208 ? 0 min 0 W/m? 14,6 ?C 8,0 km/h (2 Bft)
04.09.2026 03:27 17,3 ?C 16,8 ?C 17,1 ?C 84 % 1012,9 hPa 0,0 l/m? 4,9 km/h (1 Bft) S-SW 213 ? 0 min 0 W/m? 14,6 ?C 11,3 km/h (2 Bft)
04.09.2026 03:30 17,3 ?C 16,9 ?C 17,1 ?C 84 % 1013,0 hPa 0,0 l/m? 5,6 km/h (2 Bft) SW 223 ? 0 min 0 W/m? 14,6 ?C 11,3 km/h (2 Bft)
04.09.2026 03:33 17,4 ?C 16,9 ?C 17,2 ?C 83 % 1012,9 hPa 0,0 l/m? 4,3 km/h (1 Bft) SW 232 ? 0 min 0 W/m? 14,5 ?C 8,0 km/h (2 Bft)
04.09.2026 03:36 17,4 ?C 16,9 ?C 17,2 ?C 83 % 1012,9 hPa 0,0 l/m? 5,1 km/h (1 Bft) SW 218 ? 0 min 0 W/m? 14,5 ?C 9,7 km/h (2 Bft)
04.09.2026 03:39 17,4 ?C 16,9 ?C 17,2 ?C 83 % 1012,9 hPa 0,0 l/m? 3,8 km/h (1 Bft) SW 217 ? 0 min 0 W/m? 14,5 ?C 8,0 km/h (2 Bft)
04.09.2026 03:42 17,4 ?C 16,9 ?C 17,2 ?C 83 % 1012,9 hPa 0,0 l/m? 5,4 km/h (2 Bft) SW 229 ? 0 min 0 W/m? 14,5 ?C 12,9 km/h (3 Bft)
04.09.2026 03:45 17,4 ?C 16,8 ?C 17,3 ?C 83 % 1013,0 hPa 0,0 l/m? 5,3 km/h (1 Bft) SW 234 ? 0 min 0 W/m? 14,5 ?C 9,7 km/h (2 Bft)
04.09.2026 03:48 17,4 ?C 16,8 ?C 17,2 ?C 83 % 1012,9 hPa 0,0 l/m? 5,0 km/h (1 Bft) SW 228 ? 0 min 0 W/m? 14,5 ?C 11,3 km/h (2 Bft)
04.09.2026 03:51 17,4 ?C 16,8 ?C 17,2 ?C 83 % 1012,9 hPa 0,0 l/m? 5,1 km/h (1 Bft) SW 225 ? 0 min 0 W/m? 14,5 ?C 9,7 km/h (2 Bft)
04.09.2026 03:54 17,4 ?C 16,8 ?C 17,2 ?C 83 % 1013,0 hPa 0,0 l/m? 4,8 km/h (1 Bft) SW 232 ? 0 min 0 W/m? 14,5 ?C 9,7 km/h (2 Bft)
04.09.2026 03:57 17,4 ?C 16,8 ?C 17,2 ?C 83 % 1013,0 hPa 0,0 l/m? 4,5 km/h (1 Bft) SW 230 ? 0 min 0 W/m? 14,5 ?C 11,3 km/h (2 Bft)
04.09.2026 04:00 17,4 ?C 16,9 ?C 17,2 ?C 83 % 1013,1 hPa 0,0 l/m? 4,6 km/h (1 Bft) W-SW 241 ? 0 min 0 W/m? 14,5 ?C 9,7 km/h (2 Bft)
04.09.2026 04:03 17,4 ?C 16,9 ?C 17,2 ?C 83 % 1013,1 hPa 0,0 l/m? 4,2 km/h (1 Bft) W-SW 240 ? 0 min 0 W/m? 14,5 ?C 8,0 km/h (2 Bft)
04.09.2026 04:06 17,4 ?C 16,9 ?C 17,2 ?C 83 % 1013,2 hPa 0,0 l/m? 4,7 km/h (1 Bft) SW 234 ? 0 min 0 W/m? 14,5 ?C 9,7 km/h (2 Bft)
04.09.2026 04:09 17,4 ?C 16,9 ?C 17,2 ?C 83 % 1013,2 hPa 0,0 l/m? 3,8 km/h (1 Bft) SW 228 ? 0 min 0 W/m? 14,5 ?C 8,0 km/h (2 Bft)
04.09.2026 04:12 17,4 ?C 16,9 ?C 17,3 ?C 83 % 1013,2 hPa 0,0 l/m? 6,0 km/h (2 Bft) SW 234 ? 0 min 0 W/m? 14,5 ?C 9,7 km/h (2 Bft)
04.09.2026 04:15 17,5 ?C 16,9 ?C 17,3 ?C 83 % 1013,2 hPa 0,0 l/m? 5,1 km/h (1 Bft) SW 236 ? 0 min 0 W/m? 14,6 ?C 9,7 km/h (2 Bft)
04.09.2026 04:18 17,5 ?C 16,9 ?C 17,3 ?C 83 % 1013,1 hPa 0,0 l/m? 4,5 km/h (1 Bft) SW 225 ? 0 min 0 W/m? 14,6 ?C 8,0 km/h (2 Bft)
04.09.2026 04:21 17,5 ?C 16,9 ?C 17,2 ?C 83 % 1013,0 hPa 0,0 l/m? 4,0 km/h (1 Bft) SW 230 ? 0 min 0 W/m? 14,6 ?C 8,0 km/h (2 Bft)
04.09.2026 04:24 17,5 ?C 16,9 ?C 17,2 ?C 83 % 1012,9 hPa 0,0 l/m? 4,1 km/h (1 Bft) SW 225 ? 0 min 0 W/m? 14,6 ?C 6,4 km/h (2 Bft)
04.09.2026 04:27 17,4 ?C 16,9 ?C 17,2 ?C 83 % 1012,8 hPa 0,0 l/m? 3,8 km/h (1 Bft) S-SW 210 ? 0 min 0 W/m? 14,5 ?C 8,0 km/h (2 Bft)
04.09.2026 04:30 17,4 ?C 16,9 ?C 17,2 ?C 83 % 1012,8 hPa 0,0 l/m? 5,2 km/h (1 Bft) SW 218 ? 0 min 0 W/m? 14,5 ?C 8,0 km/h (2 Bft)
04.09.2026 04:33 17,4 ?C 16,8 ?C 17,2 ?C 83 % 1012,7 hPa 0,0 l/m? 4,7 km/h (1 Bft) SW 225 ? 0 min 0 W/m? 14,5 ?C 8,0 km/h (2 Bft)
04.09.2026 04:36 17,4 ?C 16,8 ?C 17,1 ?C 83 % 1012,8 hPa 0,0 l/m? 3,2 km/h (1 Bft) SW 232 ? 0 min 0 W/m? 14,5 ?C 8,0 km/h (2 Bft)
04.09.2026 04:39 17,4 ?C 16,8 ?C 17,1 ?C 83 % 1012,8 hPa 0,0 l/m? 4,8 km/h (1 Bft) SW 227 ? 0 min 0 W/m? 14,5 ?C 11,3 km/h (2 Bft)
04.09.2026 04:42 17,3 ?C 16,8 ?C 17,1 ?C 84 % 1012,8 hPa 0,0 l/m? 4,8 km/h (1 Bft) W-SW 238 ? 0 min 0 W/m? 14,6 ?C 9,7 km/h (2 Bft)
04.09.2026 04:45 17,3 ?C 16,8 ?C 17,1 ?C 84 % 1012,8 hPa 0,0 l/m? 4,9 km/h (1 Bft) SW 225 ? 0 min 0 W/m? 14,6 ?C 8,0 km/h (2 Bft)
04.09.2026 04:48 17,3 ?C 16,7 ?C 17,1 ?C 84 % 1012,8 hPa 0,0 l/m? 3,5 km/h (1 Bft) SW 229 ? 0 min 0 W/m? 14,6 ?C 8,0 km/h (2 Bft)
04.09.2026 04:51 17,2 ?C 16,7 ?C 17,0 ?C 84 % 1012,8 hPa 0,0 l/m? 4,3 km/h (1 Bft) SW 235 ? 0 min 0 W/m? 14,5 ?C 8,0 km/h (2 Bft)
04.09.2026 04:54 17,2 ?C 16,7 ?C 17,0 ?C 84 % 1012,8 hPa 0,0 l/m? 4,3 km/h (1 Bft) SW 228 ? 0 min 0 W/m? 14,5 ?C 8,0 km/h (2 Bft)
04.09.2026 04:57 17,2 ?C 16,7 ?C 17,0 ?C 84 % 1012,8 hPa 0,0 l/m? 4,0 km/h (1 Bft) SW 218 ? 0 min 0 W/m? 14,5 ?C 6,4 km/h (2 Bft)
04.09.2026 05:00 17,2 ?C 16,6 ?C 16,9 ?C 84 % 1012,8 hPa 0,0 l/m? 4,3 km/h (1 Bft) SW 231 ? 0 min 0 W/m? 14,5 ?C 8,0 km/h (2 Bft)
04.09.2026 05:03 17,2 ?C 16,6 ?C 17,0 ?C 84 % 1012,8 hPa 0,0 l/m? 4,4 km/h (1 Bft) W-SW 240 ? 0 min 0 W/m? 14,5 ?C 9,7 km/h (2 Bft)
04.09.2026 05:06 17,2 ?C 16,6 ?C 16,9 ?C 84 % 1012,8 hPa 0,0 l/m? 3,4 km/h (1 Bft) SW 220 ? 0 min 0 W/m? 14,5 ?C 6,4 km/h (2 Bft)
04.09.2026 05:09 17,2 ?C 16,6 ?C 16,9 ?C 84 % 1012,8 hPa 0,0 l/m? 4,6 km/h (1 Bft) SW 223 ? 0 min 0 W/m? 14,5 ?C 8,0 km/h (2 Bft)
04.09.2026 05:12 17,1 ?C 16,7 ?C 17,0 ?C 84 % 1012,7 hPa 0,0 l/m? 5,4 km/h (2 Bft) S-SW 213 ? 0 min 0 W/m? 14,4 ?C 8,0 km/h (2 Bft)
04.09.2026 05:15 17,2 ?C 16,7 ?C 17,0 ?C 84 % 1012,7 hPa 0,0 l/m? 4,6 km/h (1 Bft) SW 230 ? 0 min 0 W/m? 14,5 ?C 11,3 km/h (2 Bft)
04.09.2026 05:18 17,2 ?C 16,7 ?C 17,1 ?C 84 % 1012,8 hPa 0,0 l/m? 5,9 km/h (2 Bft) W-SW 243 ? 0 min 0 W/m? 14,5 ?C 9,7 km/h (2 Bft)
04.09.2026 05:21 17,2 ?C 16,7 ?C 17,0 ?C 84 % 1012,8 hPa 0,0 l/m? 4,4 km/h (1 Bft) W-SW 241 ? 0 min 0 W/m? 14,5 ?C 9,7 km/h (2 Bft)
04.09.2026 05:24 17,3 ?C 16,7 ?C 17,1 ?C 84 % 1012,7 hPa 0,0 l/m? 5,1 km/h (1 Bft) SW 229 ? 0 min 0 W/m? 14,6 ?C 9,7 km/h (2 Bft)
04.09.2026 05:27 17,3 ?C 16,7 ?C 17,1 ?C 84 % 1012,7 hPa 0,0 l/m? 4,9 km/h (1 Bft) SW 229 ? 0 min 0 W/m? 14,6 ?C 9,7 km/h (2 Bft)
04.09.2026 05:30 17,3 ?C 16,7 ?C 17,1 ?C 84 % 1012,7 hPa 0,0 l/m? 4,5 km/h (1 Bft) SW 236 ? 0 min 0 W/m? 14,6 ?C 8,0 km/h (2 Bft)
04.09.2026 05:33 17,3 ?C 16,7 ?C 17,2 ?C 84 % 1012,6 hPa 0,0 l/m? 5,6 km/h (2 Bft) SW 221 ? 0 min 0 W/m? 14,6 ?C 9,7 km/h (2 Bft)
04.09.2026 05:36 17,4 ?C 16,7 ?C 17,2 ?C 83 % 1012,5 hPa 0,0 l/m? 3,8 km/h (1 Bft) SW 224 ? 0 min 0 W/m? 14,5 ?C 6,4 km/h (2 Bft)
04.09.2026 05:39 17,4 ?C 16,7 ?C 17,2 ?C 83 % 1012,5 hPa 0,0 l/m? 5,5 km/h (2 Bft) SW 233 ? 0 min 0 W/m? 14,5 ?C 9,7 km/h (2 Bft)
04.09.2026 05:42 17,4 ?C 16,8 ?C 17,3 ?C 83 % 1012,4 hPa 0,0 l/m? 5,7 km/h (2 Bft) SW 221 ? 0 min 0 W/m? 14,5 ?C 9,7 km/h (2 Bft)
04.09.2026 05:45 17,4 ?C 16,8 ?C 17,3 ?C 83 % 1012,4 hPa 0,0 l/m? 6,3 km/h (2 Bft) SW 227 ? 0 min 0 W/m? 14,5 ?C 12,9 km/h (3 Bft)
04.09.2026 05:48 17,5 ?C 16,8 ?C 17,3 ?C 83 % 1012,4 hPa 0,0 l/m? 4,7 km/h (1 Bft) SW 235 ? 0 min 0 W/m? 14,6 ?C 9,7 km/h (2 Bft)
04.09.2026 05:51 17,5 ?C 16,8 ?C 17,2 ?C 83 % 1012,4 hPa 0,0 l/m? 3,2 km/h (1 Bft) SW 227 ? 0 min 0 W/m? 14,6 ?C 8,0 km/h (2 Bft)
04.09.2026 05:54 17,5 ?C 16,8 ?C 17,3 ?C 83 % 1012,4 hPa 0,0 l/m? 5,2 km/h (1 Bft) SW 229 ? 0 min 0 W/m? 14,6 ?C 11,3 km/h (2 Bft)
04.09.2026 05:57 17,5 ?C 16,8 ?C 17,3 ?C 83 % 1012,4 hPa 0,0 l/m? 5,0 km/h (1 Bft) SW 232 ? 0 min 0 W/m? 14,6 ?C 9,7 km/h (2 Bft)
04.09.2026 06:00 17,5 ?C 16,8 ?C 17,4 ?C 83 % 1012,4 hPa 0,0 l/m? 7,0 km/h (2 Bft) SW 234 ? 0 min 0 W/m? 14,6 ?C 12,9 km/h (3 Bft)
04.09.2026 06:03 17,5 ?C 16,9 ?C 17,4 ?C 83 % 1012,4 hPa 0,0 l/m? 4,8 km/h (1 Bft) SW 226 ? 0 min 0 W/m? 14,6 ?C 9,7 km/h (2 Bft)
04.09.2026 06:06 17,6 ?C 16,9 ?C 17,4 ?C 83 % 1012,4 hPa 0,0 l/m? 5,3 km/h (1 Bft) SW 226 ? 0 min 0 W/m? 14,7 ?C 11,3 km/h (2 Bft)
04.09.2026 06:09 17,6 ?C 16,9 ?C 17,5 ?C 83 % 1012,4 hPa 0,0 l/m? 6,6 km/h (2 Bft) SW 223 ? 0 min 0 W/m? 14,7 ?C 12,9 km/h (3 Bft)
04.09.2026 06:12 17,7 ?C 16,9 ?C 17,5 ?C 83 % 1012,4 hPa 0,0 l/m? 4,5 km/h (1 Bft) SW 235 ? 0 min 0 W/m? 14,8 ?C 9,7 km/h (2 Bft)
04.09.2026 06:15 17,7 ?C 16,9 ?C 17,5 ?C 83 % 1012,5 hPa 0,0 l/m? 4,8 km/h (1 Bft) W-SW 247 ? 0 min 0 W/m? 14,8 ?C 11,3 km/h (2 Bft)
04.09.2026 06:18 17,7 ?C 16,9 ?C 17,5 ?C 83 % 1012,4 hPa 0,0 l/m? 4,3 km/h (1 Bft) SW 223 ? 0 min 0 W/m? 14,8 ?C 8,0 km/h (2 Bft)
04.09.2026 06:21 17,7 ?C 16,9 ?C 17,5 ?C 83 % 1012,3 hPa 0,0 l/m? 4,1 km/h (1 Bft) SW 219 ? 0 min 2 W/m? 14,8 ?C 8,0 km/h (2 Bft)
04.09.2026 06:24 17,7 ?C 16,9 ?C 17,4 ?C 83 % 1012,3 hPa 0,0 l/m? 3,2 km/h (1 Bft) SW 226 ? 0 min 2 W/m? 14,8 ?C 8,0 km/h (2 Bft)
04.09.2026 06:27 17,6 ?C 16,9 ?C 17,3 ?C 83 % 1012,2 hPa 0,0 l/m? 3,2 km/h (1 Bft) S-SW 206 ? 0 min 2 W/m? 14,7 ?C 6,4 km/h (2 Bft)
04.09.2026 06:30 17,6 ?C 16,9 ?C 17,4 ?C 83 % 1012,1 hPa 0,0 l/m? 3,5 km/h (1 Bft) SW 214 ? 0 min 2 W/m? 14,7 ?C 8,0 km/h (2 Bft)
04.09.2026 06:33 17,5 ?C 16,9 ?C 17,4 ?C 83 % 1012,1 hPa 0,0 l/m? 3,5 km/h (1 Bft) S-SW 202 ? 0 min 4 W/m? 14,6 ?C 6,4 km/h (2 Bft)
04.09.2026 06:36 17,5 ?C 16,9 ?C 17,3 ?C 83 % 1012,0 hPa 0,0 l/m? 4,6 km/h (1 Bft) S-SW 208 ? 0 min 5 W/m? 14,6 ?C 8,0 km/h (2 Bft)
04.09.2026 06:39 17,5 ?C 17,0 ?C 17,4 ?C 83 % 1012,0 hPa 0,0 l/m? 5,3 km/h (1 Bft) S-SW 203 ? 0 min 5 W/m? 14,6 ?C 8,0 km/h (2 Bft)
04.09.2026 06:42 17,5 ?C 17,1 ?C 17,4 ?C 84 % 1011,8 hPa 0,0 l/m? 5,0 km/h (1 Bft) S-SW 205 ? 0 min 7 W/m? 14,8 ?C 12,9 km/h (3 Bft)
04.09.2026 06:45 17,5 ?C 17,1 ?C 17,4 ?C 84 % 1011,7 hPa 0,0 l/m? 3,8 km/h (1 Bft) S-SW 204 ? 0 min 8 W/m? 14,8 ?C 8,0 km/h (2 Bft)
04.09.2026 06:48 17,5 ?C 17,1 ?C 17,5 ?C 84 % 1011,5 hPa 0,0 l/m? 5,9 km/h (2 Bft) S-SW 198 ? 0 min 11 W/m? 14,8 ?C 14,5 km/h (3 Bft)
04.09.2026 06:51 17,6 ?C 17,1 ?C 17,5 ?C 84 % 1011,6 hPa 0,0 l/m? 5,2 km/h (1 Bft) S-SW 213 ? 0 min 12 W/m? 14,9 ?C 11,3 km/h (2 Bft)
04.09.2026 06:54 17,6 ?C 17,2 ?C 17,6 ?C 84 % 1011,7 hPa 0,0 l/m? 6,7 km/h (2 Bft) SW 214 ? 0 min 15 W/m? 14,9 ?C 12,9 km/h (3 Bft)
04.09.2026 06:57 17,6 ?C 17,3 ?C 17,7 ?C 84 % 1011,7 hPa 0,0 l/m? 8,1 km/h (2 Bft) SW 215 ? 0 min 19 W/m? 14,9 ?C 16,1 km/h (3 Bft)
04.09.2026 07:00 17,7 ?C 17,3 ?C 17,8 ?C 84 % 1011,6 hPa 0,0 l/m? 7,7 km/h (2 Bft) S-SW 205 ? 0 min 18 W/m? 15,0 ?C 14,5 km/h (3 Bft)
04.09.2026 07:03 17,8 ?C 17,4 ?C 17,8 ?C 84 % 1011,7 hPa 0,0 l/m? 6,2 km/h (2 Bft) SW 216 ? 0 min 21 W/m? 15,1 ?C 14,5 km/h (3 Bft)
04.09.2026 07:06 17,8 ?C 17,5 ?C 17,9 ?C 84 % 1011,7 hPa 0,0 l/m? 9,6 km/h (2 Bft) S-SW 212 ? 0 min 19 W/m? 15,1 ?C 16,1 km/h (3 Bft)
04.09.2026 07:09 17,8 ?C 17,4 ?C 17,9 ?C 83 % 1011,7 hPa 0,0 l/m? 6,5 km/h (2 Bft) SW 222 ? 0 min 16 W/m? 14,9 ?C 12,9 km/h (3 Bft)
04.09.2026 07:12 17,9 ?C 17,5 ?C 17,9 ?C 83 % 1011,8 hPa 0,0 l/m? 6,8 km/h (2 Bft) SW 226 ? 0 min 19 W/m? 15,0 ?C 14,5 km/h (3 Bft)
04.09.2026 07:15 17,9 ?C 17,5 ?C 17,9 ?C 83 % 1011,8 hPa 0,0 l/m? 7,1 km/h (2 Bft) SW 222 ? 0 min 28 W/m? 15,0 ?C 12,9 km/h (3 Bft)
04.09.2026 07:18 17,9 ?C 17,6 ?C 18,0 ?C 83 % 1011,9 hPa 0,0 l/m? 4,5 km/h (1 Bft) SW 228 ? 0 min 36 W/m? 15,0 ?C 8,0 km/h (2 Bft)
04.09.2026 07:21 17,9 ?C 17,6 ?C 18,1 ?C 83 % 1011,9 hPa 0,0 l/m? 7,1 km/h (2 Bft) SW 227 ? 0 min 33 W/m? 15,0 ?C 14,5 km/h (3 Bft)
04.09.2026 07:24 18,0 ?C 17,6 ?C 18,2 ?C 83 % 1011,9 hPa 0,0 l/m? 6,5 km/h (2 Bft) W-SW 240 ? 0 min 26 W/m? 15,1 ?C 12,9 km/h (3 Bft)
04.09.2026 07:27 18,0 ?C 17,6 ?C 18,2 ?C 83 % 1011,8 hPa 0,0 l/m? 7,6 km/h (2 Bft) SW 228 ? 0 min 27 W/m? 15,1 ?C 16,1 km/h (3 Bft)
04.09.2026 07:30 18,1 ?C 17,7 ?C 18,2 ?C 83 % 1011,9 hPa 0,0 l/m? 6,6 km/h (2 Bft) SW 235 ? 0 min 32 W/m? 15,2 ?C 12,9 km/h (3 Bft)
04.09.2026 07:33 18,1 ?C 17,7 ?C 18,2 ?C 83 % 1011,9 hPa 0,0 l/m? 6,3 km/h (2 Bft) SW 228 ? 0 min 33 W/m? 15,2 ?C 11,3 km/h (2 Bft)
04.09.2026 07:36 18,1 ?C 17,8 ?C 18,2 ?C 83 % 1012,0 hPa 0,0 l/m? 6,4 km/h (2 Bft) SW 223 ? 0 min 29 W/m? 15,2 ?C 16,1 km/h (3 Bft)
04.09.2026 07:39 18,1 ?C 17,8 ?C 18,3 ?C 83 % 1011,9 hPa 0,0 l/m? 8,0 km/h (2 Bft) SW 227 ? 0 min 30 W/m? 15,2 ?C 14,5 km/h (3 Bft)
04.09.2026 07:42 18,2 ?C 17,8 ?C 18,3 ?C 83 % 1011,8 hPa 0,0 l/m? 5,9 km/h (2 Bft) SW 220 ? 0 min 36 W/m? 15,3 ?C 11,3 km/h (2 Bft)
04.09.2026 07:45 18,2 ?C 17,9 ?C 18,4 ?C 83 % 1011,8 hPa 0,0 l/m? 5,1 km/h (1 Bft) SW 220 ? 0 min 42 W/m? 15,3 ?C 11,3 km/h (2 Bft)
04.09.2026 07:48 18,2 ?C 18,0 ?C 18,5 ?C 83 % 1011,7 hPa 0,0 l/m? 7,1 km/h (2 Bft) SW 217 ? 0 min 50 W/m? 15,3 ?C 12,9 km/h (3 Bft)
04.09.2026 07:51 18,3 ?C 18,1 ?C 18,6 ?C 83 % 1011,7 hPa 0,0 l/m? 6,8 km/h (2 Bft) SW 228 ? 0 min 52 W/m? 15,4 ?C 9,7 km/h (2 Bft)
04.09.2026 07:54 18,3 ?C 18,1 ?C 18,7 ?C 83 % 1011,7 hPa 0,0 l/m? 7,8 km/h (2 Bft) SW 225 ? 0 min 43 W/m? 15,4 ?C 16,1 km/h (3 Bft)
04.09.2026 07:57 18,3 ?C 18,1 ?C 18,7 ?C 83 % 1011,6 hPa 0,0 l/m? 6,1 km/h (2 Bft) SW 214 ? 0 min 49 W/m? 15,4 ?C 9,7 km/h (2 Bft)
04.09.2026 08:00 18,3 ?C 18,2 ?C 18,8 ?C 83 % 1011,7 hPa 0,0 l/m? 6,3 km/h (2 Bft) S-SW 213 ? 0 min 51 W/m? 15,4 ?C 12,9 km/h (3 Bft)
04.09.2026 08:03 18,4 ?C 18,2 ?C 18,8 ?C 83 % 1011,5 hPa 0,0 l/m? 5,9 km/h (2 Bft) SW 219 ? 0 min 62 W/m? 15,5 ?C 9,7 km/h (2 Bft)
04.09.2026 08:06 18,4 ?C 18,4 ?C 18,9 ?C 82 % 1011,4 hPa 0,0 l/m? 4,8 km/h (1 Bft) S-SW 208 ? 0 min 75 W/m? 15,3 ?C 9,7 km/h (2 Bft)
04.09.2026 08:09 18,5 ?C 18,5 ?C 19,1 ?C 82 % 1011,4 hPa 0,0 l/m? 3,8 km/h (1 Bft) S-SW 205 ? 0 min 84 W/m? 15,4 ?C 6,4 km/h (2 Bft)
_ Min-Zeit 09:03 01:24 01:21 15:48 08:06 - 00:45 - - - - 09:03 00:45
Minimum _ 15,8 ?C 16,4 ?C 16,8 ?C 56 % 1011,4 hPa - 0,0 km/h (0 Bft) - - - - 12,5 ?C 0,0 km/h (0 Bft)
_ Max-Zeit 16:21 15:03 16:18 00:39 09:00 09:00 16:54 - - 10:18 14:48 08:03 14:21
Maximum _ 23,7 ?C 29,3 ?C 25,5 ?C 86 % 1017,5 hPa 0,0 l/m? 21,3 km/h
W-SW (4 Bft)
- - 3 min 717 W/m? 15,5 ?C 37,0 km/h
S-SW (5 Bft)
Durchschnitt _ 18,8 ?C 19,5 ?C 19,7 ?C 76 % 1014,3 hPa #0,0 l/m? 7,8 km/h (2 Bft) SW - #0 min. 27 W/m? 14,4 ?C 14,7 km/h (3 Bft)